                ,  0.290,  0.386,  0.483,  0.580,  0.676,  0.773,  0.869,  0.966,  1.063,  1.159,  1.256,  1.352,  1.449,  1.545,  1.642,  1.739,  1.835,  1.932,  2.028,  2.125,  2.222,  2.318,  2.415,  2.511,  2.608,  2.705,  2.801,  2.898,  2.994,  3.091,  3.188,  3.284,  3.381,  3.477,  3.574,  3.671,  3.767,  3.864,  3.960,  4.057,  4.153,  4.250,  4.347,  4.443,  4.540,  4.636,  4.733,  4.830,  4.926,  5.023,  5.119,  5.216,  5.313,  5.409,  5.506,  5.602,  5.699,  5.796
2001/03/04 00:00,  999.0,    9.5,    6.0,    9.9,   10.6,   10.5,   11.0,   11.7,   11.8,  999.0,  999.0,  999.0,  999.0,   11.3,  999.0,  999.0,  999.0,  999.0,  999.0,  999.0,  999.0,  999.0,  999.0,  999.0,  999.0,  999.0,  999.0,  999.0,  999.0,  999.0,  999.0,  999.0,  999.0,  999.0,  999.0,  999.0,  999.0,  999.0,  999.0,  999.0,  999.0,  999.0,  999.0,  999.0,  999.0,  999.0,  999.0,  999.0,  999.0,  999.0,  999.0,  999.0,  999.0,  999.0,  999.0,  999.0,  999.0,  999.0
2001/03/04 00:10,  999.0,   10.1,   10.9,   10.9,   11.6,   11.7,   11.2,   12.2,   12.0,   15.3,  999.0,  999.0,  999.0,   11.9,  999.0,  999.0,  999.0,  999.0,   10.6,  999.0,  999.0,  999.0,  999.0,  999.0,  999.0,  999.0,  999.0,  999.0,  999.0,  999.0,    9.7,  999.0,  999.0,  999.0,  999.0,  999.0,  999.0,  999.0,  999.0,  999.0,  999.0,  999.0,  999.0,  999.0,  999.0,  999.0,  999.0,  999.0,  999.0,  999.0,  999.0,  999.0,  999.0,  999.0,  999.0,  999.0,  999.0,  999.0
2001/03/04 00:20,  999.0,   10.5,   10.4,   11.0,   11.0,   11.5,   10.7,   11.7,   11.1,   11.4,   12.4,   10.7,   12.3,   13.0,  999.0,  999.0,  999.0,  999.0,   10.8,   10.7,  999.0,  999.0,  999.0,  999.0,  999.0,  999.0,  999.0,   14.5,  999.0,  999.0,  999.0,  999.0,  999.0,  999.0,  999.0,  999.0,  999.0,  999.0,  999.0,  999.0,  999.0,  999.0,  999.0,  999.0,  999.0,  999.0,  999.0,  999.0,  999.0,  999.0,  999.0,  999.0,  999.0,  999.0,  999.0,  999.0,  999.0,  999.0
2001/03/04 00:30,  999.0,   10.7,   11.1,   11.4,   11.7,   11.6,   11.8,   10.9,   11.8,   11.5,   12.4,   12.8,   13.4,   13.6,   14.5,   14.5,  999.0,   12.0,   12.7,  999.0,    9.6,   10.0,  999.0,  999.0,  999.0,  999.0,  999.0,  999.0,  999.0,  999.0,  999.0,  999.0,  999.0,  999.0,  999.0,  999.0,  999.0,  999.0,  999.0,  999.0,  999.0,  999.0,  999.0,  999.0,  999.0,  999.0,  999.0,  999.0,  999.0,  999.0,  999.0,  999.0,  999.0,  999.0,  999.0,  999.0,  999.0,  999.0
2001/03/04 00:40,  999.0,   10.0,   10.3,   11.6,   11.5,   11.4,   12.4,   12.7,   10.8,   11.4,   12.1,   12.6,   12.1,   12.3,  999.0,  999.0,  999.0,  999.0,  999.0,  999.0,  999.0,  999.0,  999.0,  999.0,  999.0,  999.0,  999.0,  999.0,  999.0,  999.0,  999.0,  999.0,  999.0,  999.0,  999.0,  999.0,  999.0,  999.0,  999.0,  999.0,  999.0,  999.0,  999.0,  999.0,  999.0,  999.0,  999.0,  999.0,  999.0,  999.0,  999.0,  999.0,  999.0,  999.0,  999.0,  999.0,  999.0,  999.0
2001/03/04 00:50,  999.0,    9.9,   10.6,   10.9,   12.2,   11.5,   12.8,   12.5,    9.9,   10.6,   10.4,   10.7,   11.1,   12.0,  999.0,  999.0,   15.5,  999.0,   11.3,   10.4,  999.0,  999.0,  999.0,  999.0,  999.0,  999.0,  999.0,  999.0,  999.0,  999.0,  999.0,  999.0,  999.0,  999.0,  999.0,  999.0,  999.0,  999.0,  999.0,  999.0,  999.0,  999.0,  999.0,  999.0,  999.0,  999.0,  999.0,  999.0,  999.0,  999.0,  999.0,  999.0,  999.0,  999.0,  999.0,  999.0,  999.0,  999.0
2001/03/04 01:00,  999.0,   11.1,   10.8,   11.7,   12.7,   12.7,   11.8,   12.4,   12.4,   12.5,   12.4,   11.5,   11.4,   12.2,  999.0,   11.9,   13.1,  999.0,  999.0,  999.0,   11.6,  999.0,   11.9,  999.0,  999.0,  999.0,  999.0,  999.0,  999.0,  999.0,  999.0,  999.0,  999.0,  999.0,  999.0,  999.0,  999.0,   11.3,  999.0,  999.0,  999.0,  999.0,  999.0,    5.5,    7.5,  999.0,  999.0,  999.0,  999.0,  999.0,  999.0,  999.0,  999.0,  999.0,  999.0,  999.0,  999.0,  999.0
2001/03/04 01:10,  999.0,    9.2,   10.9,   11.6,   11.3,   11.6,   11.0,   11.9,   12.4,   12.0,   12.6,   10.6,   11.3,   11.8,   12.5,  999.0,   11.9,  999.0,  999.0,  999.0,  999.0,  999.0,  999.0,  999.0,  999.0,  999.0,  999.0,  999.0,  999.0,  999.0,  999.0,  999.0,  999.0,  999.0,  999.0,  999.0,  999.0,  999.0,  999.0,  999.0,  999.0,  999.0,  999.0,  999.0,  999.0,  999.0,  999.0,  999.0,  999.0,  999.0,  999.0,   21.9,  999.0,  999.0,  999.0,   22.4,   21.5,  999.0
2001/03/04 01:20,  999.0,   11.1,   11.3,   12.1,   12.3,   13.1,   12.8,  999.0,   11.5,   14.1,  999.0,   13.6,   14.0,   12.6,   15.0,  999.0,   15.8,  999.0,  999.0,  999.0,  999.0,   11.9,   10.5,   11.4,   12.8,   11.2,  999.0,  999.0,  999.0,  999.0,  999.0,  999.0,  999.0,  999.0,  999.0,  999.0,  999.0,  999.0,   20.5,  999.0,  999.0,   21.6,  999.0,  999.0,  999.0,  999.0,  999.0,  999.0,   21.4,  999.0,   18.3,   21.4,  999.0,  999.0,  999.0,  999.0,  999.0,  999.0
2001/03/04 01:30,  999.0,   12.8,   11.9,   12.1,   12.1,   11.9,   12.8,   14.1,   13.4,   13.3,   13.8,   13.6,   13.8,   12.9,   12.9,  999.0,  999.0,  999.0,  999.0,  999.0,  999.0,  999.0,  999.0,  999.0,  999.0,  999.0,  999.0,  999.0,  999.0,  999.0,  999.0,  999.0,  999.0,  999.0,  999.0,  999.0,  999.0,  999.0,  999.0,  999.0,  999.0,  999.0,  999.0,  999.0,  999.0,  999.0,  999.0,  999.0,  999.0,  999.0,  999.0,  999.0,  999.0,  999.0,  999.0,  999.0,  999.0,  999.0
2001/03/04 01:40,  999.0,   11.6,   11.8,   12.0,   15.9,   19.7,   21.3,   22.2,   22.5,  999.0,  999.0,  999.0,  999.0,  999.0,   11.6,  999.0,  999.0,  999.0,  999.0,  999.0,  999.0,  999.0,  999.0,  999.0,  999.0,   23.9,  999.0,  999.0,  999.0,  999.0,  999.0,  999.0,  999.0,  999.0,   14.4,   14.8,  999.0,  999.0,   14.7,  999.0,   14.8,  999.0,  999.0,  999.0,  999.0,  999.0,   15.2,  999.0,  999.0,  999.0,   15.0,  999.0,  999.0,  999.0,  999.0,  999.0,  999.0,   14.9
2001/03/04 01:50,  999.0,   12.1,   12.8,   12.3,   12.4,   12.5,   12.9,  999.0,   12.8,   13.1,  999.0,   13.0,  999.0,  999.0,  999.0,  999.0,   20.4,  999.0,  999.0,  999.0,   21.1,  999.0,  999.0,  999.0,  999.0,  999.0,  999.0,  999.0,  999.0,  999.0,  999.0,  999.0,  999.0,  999.0,  999.0,  999.0,  999.0,  999.0,  999.0,  999.0,  999.0,  999.0,  999.0,  999.0,  999.0,  999.0,  999.0,  999.0,  999.0,  999.0,  999.0,  999.0,  999.0,  999.0,  999.0,  999.0,  999.0,  999.0
2001/03/04 02:00,  999.0,   10.5,   10.8,   11.4,   12.1,   12.4,   12.3,   14.1,   14.1,   14.2,  999.0,   12.5,   13.0,   13.2,  999.0,   13.5,  999.0,  999.0,  999.0,  999.0,   20.9,  999.0,  999.0,  999.0,   22.0,  999.0,   20.4,  999.0,  999.0,  999.0,  999.0,  999.0,  999.0,  999.0,  999.0,  999.0,  999.0,   20.9,  999.0,  999.0,  999.0,  999.0,   21.7,  999.0,  999.0,   21.6,  999.0,  999.0,   21.9,  999.0,  999.0,  999.0,  999.0,  999.0,  999.0,  999.0,  999.0,  999.0
2001/03/04 02:10,  999.0,    8.6,   10.0,   11.3,   12.1,   12.8,   13.0,   13.1,   13.5,   13.1,   13.0,   12.8,   12.1,   13.0,   12.3,  999.0,  999.0,  999.0,  999.0,  999.0,  999.0,  999.0,  999.0,  999.0,  999.0,  999.0,  999.0,  999.0,  999.0,  999.0,  999.0,  999.0,  999.0,  999.0,  999.0,  999.0,  999.0,  999.0,  999.0,  999.0,  999.0,  999.0,  999.0,  999.0,  999.0,  999.0,  999.0,  999.0,  999.0,  999.0,  999.0,  999.0,  999.0,  999.0,  999.0,  999.0,  999.0,  999.0
2001/03/04 02:20,  999.0,   11.4,   10.9,   11.8,   12.3,   12.6,   12.9,   13.1,   12.4,   10.3,   11.5,   11.9,   13.3,   15.2,   18.1,   20.2,   24.3,  999.0,   32.6,   36.8,  999.0,  999.0,   42.2,  999.0,  999.0,  999.0,   42.4,   41.5,   42.0,  999.0,   41.9,   41.6,  999.0,   42.4,   42.3,   41.8,   41.6,  999.0,   41.9,  999.0,   42.7,   41.3,  999.0,   41.5,  999.0,   41.7,  999.0,  999.0,  999.0,   41.4,  999.0,  999.0,   41.6,  999.0,   42.2,  999.0,  999.0,  999.0
2001/03/04 02:30,  999.0,  999.0,   10.7,   12.0,   13.7,   12.5,   12.7,   12.6,   13.3,  999.0,  999.0,   20.3,   14.0,   17.0,   18.0,   16.4,  999.0,   32.3,  999.0,   34.5,   35.2,   37.1,   32.7,   36.9,  999.0,   37.2,   37.5,   39.0,   41.7,   41.5,   42.0,  999.0,   42.8,  999.0,   41.8,   41.9,   42.2,   41.9,  999.0,   42.6,   41.2,   42.2,   40.7,   41.8,   42.5,   41.1,   42.3,  999.0,  999.0,  999.0,   41.5,   41.7,  999.0,   43.1,   42.6,   42.0,   42.1,   42.1
2001/03/04 02:40,  999.0,   10.5,   11.7,   12.2,   12.2,   11.9,   13.4,   12.5,  999.0,  999.0,   13.7,   14.0,   14.6,   15.4,   17.4,  999.0,   24.4,  999.0,  999.0,  999.0,  999.0,   33.8,  999.0,  999.0,   38.1,  999.0,  999.0,   40.9,   38.8,   41.0,   40.3,   41.0,   42.3,  999.0,   41.4,  999.0,  999.0,   41.5,  999.0,   41.8,  999.0,   42.0,   42.9,   41.7,   42.5,   42.1,   42.1,   41.9,   42.0,   42.3,  999.0,  999.0,   42.1,   41.0,   41.6,  999.0,   42.3,  999.0
2001/03/04 02:50,  999.0,    9.7,   11.2,   11.7,   11.1,   11.4,   11.8,  999.0,   12.6,  999.0,   10.5,   11.6,   11.7,   11.9,   12.9,   12.5,   13.3,  999.0,  999.0,   25.6,  999.0,  999.0,  999.0,  999.0,  999.0,  999.0,  999.0,  999.0,   40.4,  999.0,   37.2,   34.0,   38.4,   39.0,   36.6,  999.0,   38.3,   39.7,   42.0,   41.8,   41.6,  999.0,   42.3,   42.2,   41.6,  999.0,  999.0,   41.7,   40.8,  999.0,  999.0,   41.4,  999.0,   42.4,  999.0,   41.2,   41.9,   42.8
2001/03/04 03:00,  999.0,    4.9,   -0.4,    7.6,   10.6,   12.8,   15.1,   15.1,   15.0,  999.0,   12.4,   13.8,   13.3,   12.7,   12.1,   13.3,   13.0,   11.0,   13.8,  999.0,  999.0,  999.0,  999.0,  999.0,  999.0,  999.0,  999.0,  999.0,  999.0,  999.0,   32.8,  999.0,   34.5,   33.1,  999.0,   36.6,  999.0,  999.0,  999.0,  999.0,   38.6,  999.0,   39.0,  999.0,   41.0,  999.0,  999.0,   41.3,   41.1,  999.0,  999.0,  999.0,   41.1,   41.8,   41.9,   41.9,   42.1,  999.0
2001/03/04 03:10,  999.0,    9.1,    8.4,   12.0,   12.5,   13.3,   13.1,  999.0,   14.5,   12.9,   12.9,   12.2,   12.7,   12.3,  999.0,  999.0,   13.6,   14.5,  999.0,  999.0,  999.0,  999.0,  999.0,  999.0,  999.0,  999.0,  999.0,  999.0,   33.6,  999.0,  999.0,   34.8,  999.0,   35.5,  999.0,  999.0,   37.2,  999.0,  999.0,  999.0,  999.0,   42.3,   41.3,   42.1,  999.0,  999.0,  999.0,   41.7,  999.0,   42.1,  999.0,   42.2,  999.0,  999.0,  999.0,  999.0,   41.8,   41.5
2001/03/04 03:20,  999.0,    9.2,    9.8,   10.9,   11.0,   11.3,   11.6,  999.0,   13.1,   11.9,   12.7,   12.6,   12.7,   12.5,   12.4,   11.0,   11.5,    9.6,   11.8,  999.0,  999.0,  999.0,  999.0,  999.0,  999.0,   27.6,   29.3,  999.0,   32.5,  999.0,  999.0,  999.0,   34.8,  999.0,  999.0,  999.0,   37.4,  999.0,  999.0,   38.2,  999.0,   39.5,   40.8,  999.0,   41.4,  999.0,   41.3,  999.0,   41.4,  999.0,   41.6,   41.9,  999.0,   41.5,  999.0,  999.0,   42.5,  999.0
2001/03/04 03:30,  999.0,    9.3,    9.8,   11.4,   12.5,   12.4,   12.2,   12.2,   11.4,   12.1,   12.5,   12.8,   12.5,   11.2,   12.5,   12.8,  999.0,  999.0,  999.0,  999.0,  999.0,  999.0,  999.0,   26.3,   26.8,  999.0,  999.0,   29.8,   30.4,   31.5,   31.6,   31.8,   33.6,   34.7,  999.0,   34.8,   35.8,  999.0,  999.0,  999.0,  999.0,   41.8,   41.3,  999.0,  999.0,   41.0,  999.0,   41.8,   41.6,   40.9,  999.0,  999.0,  999.0,  999.0,  999.0,   41.5,  999.0,   42.7
2001/03/04 03:40,  999.0,   12.7,   10.8,   11.9,   12.7,    9.7,   11.9,   12.7,   14.1,   10.2,   11.6,  999.0,   11.2,   10.9,   11.2,  999.0,   12.3,   13.7,   15.0,  999.0,  999.0,  999.0,   25.7,  999.0,  999.0,  999.0,  999.0,  999.0,  999.0,  999.0,  999.0,   30.2,   32.0,   31.9,   32.9,  999.0,   34.5,   34.6,   34.8,  999.0,   37.6,  999.0,   37.2,  999.0,   39.8,  999.0,   41.0,   41.7,   41.0,  999.0,   41.6,   41.9,   41.6,  999.0,   42.0,   42.4,   41.5,  999.0
2001/03/04 03:50,  999.0,   10.5,   11.0,   12.0,   12.8,   12.2,   12.4,   11.3,   14.4,   13.6,  999.0,    9.6,   11.5,   12.1,   10.4,   11.0,   11.7,   11.7,   13.7,  999.0,  999.0,  999.0,  999.0,  999.0,  999.0,  999.0,  999.0,  999.0,  999.0,  999.0,  999.0,  999.0,  999.0,  999.0,  999.0,  999.0,   34.5,   35.3,  999.0,   36.2,  999.0,   37.9,   38.2,  999.0,  999.0,  999.0,  999.0,  999.0,  999.0,  999.0,  999.0,  999.0,  999.0,  999.0,  999.0,  999.0,   42.3,  999.0
2001/03/04 04:00,  999.0,    9.7,   10.2,   12.1,   12.7,   12.3,   12.0,   11.5,   12.5,   12.0,   12.4,  999.0,   12.4,   10.5,   11.6,   11.7,   12.5,   12.6,   13.6,   12.0,    9.6,  999.0,  999.0,  999.0,  999.0,   25.5,  999.0,  999.0,  999.0,  999.0,  999.0,  999.0,   31.3,   31.6,  999.0,   32.2,   33.8,  999.0,   33.6,   34.5,  999.0,   34.7,  999.0,   36.3,   36.6,   36.2,  999.0,  999.0,   38.2,  999.0,   39.6,   40.4,   40.5,   41.3,   41.4,   41.9,  999.0,  999.0
2001/03/04 04:10,  999.0,   12.3,   12.9,   13.3,   13.3,   13.2,   12.2,   11.8,   11.9,   12.5,  999.0,  999.0,    9.9,   11.3,   11.8,  999.0,  999.0,  999.0,  999.0,  999.0,  999.0,  999.0,  999.0,  999.0,  999.0,  999.0,  999.0,  999.0,   27.7,  999.0,  999.0,   29.6,  999.0,  999.0,  999.0,  999.0,  999.0,  999.0,   32.7,  999.0,  999.0,  999.0,  999.0,   35.3,  999.0,  999.0,   37.2,  999.0,  999.0,   39.7,  999.0,   40.0,  999.0,   41.2,   41.8,  999.0,  999.0,   43.2
2001/03/04 04:20,  999.0,   12.4,   12.7,   13.6,   14.5,   14.3,   14.8,   15.9,   14.2,  999.0,  999.0,   11.7,   12.2,   11.8,   11.4,   12.2,  999.0,  999.0,  999.0,  999.0,  999.0,  999.0,  999.0,  999.0,  999.0,  999.0,  999.0,   29.9,   30.4,  999.0,  999.0,  999.0,   32.7,   33.7,  999.0,  999.0,   35.4,   36.2,  999.0,   37.8,  999.0,   38.7,  999.0,   39.5,   40.7,  999.0,   41.6,  999.0,  999.0,  999.0,   42.3,   41.4,   42.2,   41.7,  999.0,  999.0,  999.0,  999.0
2001/03/04 04:30,  999.0,   11.5,   13.1,   14.4,   13.1,   13.0,   15.4,   14.1,   13.1,   12.5,   15.0,   14.5,   13.3,   12.7,   13.3,   14.5,  999.0,  999.0,   23.1,   16.0,  999.0,   25.1,   26.0,  999.0,   30.8,   28.1,  999.0,  999.0,  999.0,   32.2,   31.6,   33.7,   33.6,  999.0,  999.0,  999.0,   37.0,  999.0,   37.5,   39.9,   39.0,   40.2,   40.0,  999.0,   40.7,  999.0,  999.0,  999.0,  999.0,  999.0,   42.1,   41.4,  999.0,  999.0,  999.0,  999.0,  999.0,   41.9
2001/03/04 04:40,  999.0,  999.0,  999.0,  999.0,  999.0,    9.3,   11.8,   12.6,   12.3,   10.2,   11.4,   11.5,   11.2,   12.5,   12.7,   12.9,   13.5,   14.2,   15.9,   17.9,  999.0,  999.0,  999.0,  999.0,  999.0,   30.6,  999.0,  999.0,   29.0,   30.7,   33.3,   30.8,   31.3,   32.0,  999.0,  999.0,   34.0,   38.2,  999.0,   35.1,   40.0,   38.7,   42.3,   41.8,   41.8,   37.9,  999.0,   41.1,   40.2,   41.4,   40.8,  999.0,   42.0,   41.9,  999.0,   41.0,  999.0,  999.0
2001/03/04 04:50,  999.0,   14.1,    7.0,  999.0,  999.0,    8.0,   11.7,   11.5,   11.1,   11.9,   11.7,   10.8,   10.0,   11.0,   11.3,   12.1,   12.1,   12.7,  999.0,  999.0,  999.0,  999.0,   26.4,   26.1,   26.6,   27.9,   27.8,   28.9,   29.0,   29.7,   30.6,   30.8,   31.8,   32.4,   33.2,  999.0,   34.1,  999.0,  999.0,   35.2,  999.0,   36.3,   36.7,   37.7,   37.8,  999.0,   40.1,  999.0,   40.2,   40.9,   42.3,  999.0,  999.0,  999.0,   42.7,   42.6,   41.3,   42.5
2001/03/04 05:00,  999.0,  999.0,  999.0,  999.0,  999.0,  999.0,    8.3,    7.9,   11.6,   10.5,   10.3,   10.5,    9.7,  999.0,    9.2,   10.1,   11.0,   12.7,  999.0,  999.0,  999.0,  999.0,  999.0,  999.0,  999.0,  999.0,  999.0,  999.0,  999.0,   31.7,  999.0,  999.0,   34.8,  999.0,  999.0,  999.0,  999.0,  999.0,  999.0,  999.0,  999.0,  999.0,  999.0,  999.0,   41.3,  999.0,  999.0,  999.0,  999.0,  999.0,  999.0,  999.0,  999.0,  999.0,  999.0,  999.0,  999.0,  999.0
2001/03/04 05:10,  999.0,    7.9,    9.9,  999.0,  999.0,  999.0,    8.0,   10.3,   10.6,    8.3,    7.9,    9.9,  999.0,  999.0,  999.0,    9.9,   10.9,   11.8,   11.8,  999.0,  999.0,  999.0,  999.0,  999.0,  999.0,  999.0,  999.0,  999.0,   20.0,  999.0,  999.0,  999.0,  999.0,  999.0,  999.0,  999.0,  999.0,  999.0,   23.8,  999.0,  999.0,  999.0,  999.0,  999.0,  999.0,  999.0,  999.0,  999.0,  999.0,  999.0,  999.0,  999.0,  999.0,  999.0,  999.0,  999.0,  999.0,  999.0
2001/03/04 05:20,  999.0,    7.4,    6.5,   14.9,   11.4,   10.0,    8.8,    6.8,    8.0,   12.5,   13.0,  999.0,  999.0,   12.9,   11.6,  999.0,  999.0,   11.6,  999.0,  999.0,  999.0,  999.0,  999.0,  999.0,  999.0,  999.0,  999.0,  999.0,  999.0,  999.0,  999.0,  999.0,  999.0,  999.0,  999.0,  999.0,  999.0,  999.0,  999.0,  999.0,  999.0,  999.0,  999.0,  999.0,  999.0,  999.0,  999.0,  999.0,  999.0,  999.0,  999.0,  999.0,  999.0,  999.0,  999.0,  999.0,  999.0,  999.0
2001/03/04 05:30,  999.0,   10.3,   11.4,   11.8,   10.5,   10.9,   12.1,   14.5,   12.9,   11.7,  999.0,  999.0,   13.4,  999.0,   13.4,  999.0,  999.0,  999.0,  999.0,  999.0,   21.2,  999.0,  999.0,  999.0,   21.5,   21.5,  999.0,  999.0,   21.1,  999.0,  999.0,  999.0,   20.9,  999.0,  999.0,   21.0,  999.0,  999.0,  999.0,  999.0,  999.0,  999.0,  999.0,  999.0,  999.0,  999.0,  999.0,  999.0,  999.0,  999.0,  999.0,  999.0,  999.0,  999.0,  999.0,  999.0,  999.0,  999.0
2001/03/04 05:40,  999.0,   16.1,   12.1,   13.3,   12.9,   12.0,   12.6,   12.9,   14.9,   14.8,   13.8,   12.1,  999.0,  999.0,  999.0,  999.0,  999.0,  999.0,  999.0,   22.2,   22.1,  999.0,  999.0,   21.7,   21.1,   21.8,   20.1,   21.9,   15.7,   18.0,   22.2,   22.1,  999.0,   16.8,  999.0,   21.9,    9.0,   14.5,   21.5,   13.7,  999.0,  999.0,    3.5,  999.0,   11.6,   11.1,  999.0,   21.1,  999.0,  999.0,    1.7,  999.0,  999.0,  999.0,  999.0,  999.0,  999.0,  999.0
2001/03/04 05:50,  999.0,  999.0,    9.8,   11.9,   12.6,   13.5,   13.3,   12.4,   11.5,  999.0,   11.0,   12.0,   11.9,   11.1,   13.1,  999.0,  999.0,  999.0,  999.0,  999.0,  999.0,  999.0,  999.0,  999.0,  999.0,  999.0,   21.5,  999.0,   21.5,   21.5,  999.0,  999.0,  999.0,   21.7,  999.0,  999.0,  999.0,  999.0,  999.0,  999.0,  999.0,  999.0,   22.2,  999.0,  999.0,  999.0,  999.0,  999.0,  999.0,  999.0,   22.6,  999.0,   21.7,   21.6,  999.0,  999.0,  999.0,   21.9
2001/03/04 06:00,  999.0,    9.8,   11.3,   12.0,   13.0,   14.2,   14.4,   12.5,   11.1,   11.0,  999.0,   11.5,   11.4,  999.0,  999.0,  999.0,  999.0,   11.9,  999.0,  999.0,  999.0,  999.0,  999.0,  999.0,  999.0,  999.0,  999.0,  999.0,   21.1,   21.3,  999.0,   21.4,   21.3,   21.6,   21.5,   21.6,   21.3,   21.2,   21.6,   21.8,   20.8,   21.8,   20.6,   21.5,   21.2,   21.7,   22.1,   22.0,   21.6,   21.6,  999.0,  999.0,   21.9,   21.9,   21.4,   22.3,   22.3,   22.1
2001/03/04 06:10,  999.0,   11.3,   12.8,   11.8,   12.8,   13.6,   13.6,   12.8,   11.4,   11.1,   10.5,   10.8,   11.2,   11.3,  999.0,  999.0,  999.0,  999.0,  999.0,  999.0,  999.0,  999.0,  999.0,  999.0,   20.2,   21.9,  999.0,  999.0,   20.9,   21.4,   21.3,   21.6,   21.3,   22.3,   21.2,  999.0,   21.3,   21.1,   21.3,   21.8,   21.3,   21.6,   21.6,   21.4,   21.7,   21.3,   21.7,   21.6,   22.1,   21.8,   21.5,  999.0,   21.7,  999.0,  999.0,   21.6,  999.0,   21.9
2001/03/04 06:20,  999.0,    5.1,    9.3,   11.6,   12.7,   12.4,   13.3,  999.0,  999.0,    8.5,   10.3,   10.5,    8.5,   11.0,  999.0,  999.0,  999.0,  999.0,   21.7,  999.0,   22.0,  999.0,   21.5,   21.9,   21.5,   22.9,   21.0,   21.9,   21.4,   21.5,   21.7,   21.5,   21.3,  999.0,  999.0,   21.4,   21.7,   21.5,   21.3,  999.0,   21.7,   22.0,   22.0,   21.3,   22.4,   22.0,   21.2,   21.5,   21.8,   21.9,  999.0,  999.0,  999.0,  999.0,  999.0,  999.0,  999.0,  999.0
2001/03/04 06:30,  999.0,   12.0,   11.4,   12.7,   13.5,   12.4,   12.0,   10.9,    5.2,    9.5,    8.1,   13.2,   11.6,   12.2,  999.0,  999.0,  999.0,  999.0,  999.0,  999.0,   10.9,   21.4,  999.0,   21.6,   22.0,  999.0,   21.8,  999.0,   21.9,   21.3,  999.0,   21.9,   23.9,   22.0,  999.0,  999.0,  999.0,  999.0,  999.0,  999.0,  999.0,  999.0,  999.0,   22.3,  999.0,   22.3,  999.0,   22.3,  999.0,   22.1,  999.0,  999.0,   21.2,   21.3,   22.0,   22.2,  999.0,  999.0
2001/03/04 06:40,  999.0,  999.0,   12.4,   11.4,   13.6,    8.6,    6.7,    2.1,    0.3,    5.8,   10.0,   11.2,   10.5,   13.0,  999.0,   19.0,  999.0,  999.0,  999.0,   28.9,   17.2,  999.0,   22.1,   10.9,  999.0,   10.0,    9.3,   31.4,  999.0,  999.0,   18.3,   20.1,   23.9,   20.4,   33.3,   33.7,   41.6,  999.0,   23.7,  999.0,   41.3,   41.8,   41.8,   41.7,   41.9,   41.7,   41.1,   41.3,  999.0,  999.0,   41.3,   42.0,   42.3,   42.3,   41.8,   41.8,   42.7,  999.0
2001/03/04 06:50,  999.0,    0.8,    5.3,    5.7,    7.6,    4.2,    3.7,    3.9,    4.0,    5.1,    5.1,    5.8,   10.2,    9.5,    9.8,   11.0,   14.8,   11.2,   18.5,   19.8,   16.9,   26.3,   23.3,   15.4,   14.0,   10.3,   10.5,    9.9,    9.4,   10.8,   11.8,   13.3,   14.1,   14.2,   14.5,   12.7,   13.2,   10.3,    5.4,    1.4,   -1.8,   -4.0,   -6.6,    0.8,    8.8,    2.0,   -3.1,  -14.7,    1.3,  999.0,  999.0,  999.0,  999.0,  999.0,  999.0,  999.0,  999.0,  999.0
2001/03/04 07:00,  999.0,    7.7,   10.8,   10.0,    8.4,    7.4,    7.5,    5.8,    5.9,    5.9,    5.1,    3.9,    5.3,    7.1,    8.5,    8.9,    9.4,    9.7,    9.3,    7.1,    6.5,    5.6,    5.4,    5.9,    6.3,    7.0,    7.3,    7.4,    7.6,    8.3,    8.8,    9.3,    9.8,   10.1,   10.0,    9.8,   10.2,   10.6,   10.3,   10.2,   10.2,   10.8,   11.4,   11.7,   12.7,   14.7,   16.7,   14.1,   13.0,   14.7,   16.7,   17.5,   22.5,  999.0,  999.0,  999.0,   19.1,  999.0
2001/03/04 07:10,  999.0,   -3.3,   -2.9,   -3.6,    0.5,    2.4,    3.3,    3.8,    4.2,    6.2,    8.1,   11.7,   14.5,   15.4,   13.2,   10.4,   13.5,   15.4,   16.0,   17.0,   16.7,   14.1,   14.7,   13.4,   14.0,   13.1,   12.3,   12.4,   13.3,   14.5,   14.5,   15.3,   15.8,   16.5,   16.4,   15.0,   12.7,   10.9,   10.8,   11.9,    3.7,    1.4,   -0.7,    9.8,   -4.7,  999.0,  999.0,  999.0,  999.0,  999.0,  999.0,  999.0,  999.0,  999.0,  999.0,  999.0,  999.0,  999.0
2001/03/04 07:20,  999.0,    9.8,   11.3,   11.5,   11.7,   11.0,   10.2,   10.2,   10.0,    9.5,   10.9,   12.8,   13.9,   14.6,   14.3,   14.7,   14.4,   13.7,   13.5,   12.8,   12.0,   12.3,   12.1,   12.4,   12.8,   12.5,   12.2,   11.6,   10.9,    9.2,    9.4,   10.2,   11.8,   12.6,   12.1,   12.3,   12.7,   13.2,   12.8,   12.5,   13.0,   11.2,    9.7,   12.6,   18.1,   23.1,   21.9,   23.7,  999.0,  999.0,  999.0,  999.0,  999.0,  999.0,  999.0,  999.0,  999.0,  999.0
2001/03/04 07:30,    5.0,   10.8,   11.9,   12.3,   10.1,   10.3,   10.5,   11.1,   11.4,   12.6,   13.7,   13.9,   19.4,   14.7,   22.5,   20.7,   18.5,   19.5,   18.9,   17.0,   17.9,   19.3,   21.1,   21.6,   21.1,   21.0,   20.5,   19.5,   20.1,   20.0,   20.5,   19.5,   20.1,   19.7,   19.4,   19.4,   18.7,   17.9,   17.7,   17.3,   16.9,   16.5,   17.3,   17.7,   19.2,   21.2,   22.7,  999.0,  999.0,  999.0,  999.0,  999.0,  999.0,  999.0,  999.0,  999.0,  999.0,  999.0
2001/03/04 07:40,   17.8,   10.2,   12.0,   12.0,   -0.9,   10.2,   12.6,   14.9,   12.3,   12.3,   14.4,   15.5,  999.0,  999.0,  999.0,   -1.4,   35.1,    9.2,    9.7,   10.7,   11.3,   11.2,   14.9,   15.2,   12.2,   15.3,   12.4,   13.5,   11.9,   18.1,   15.6,   19.0,   17.0,   15.6,   14.9,   14.3,   14.3,   14.8,   15.3,   15.5,   15.8,   15.0,   17.3,   17.4,   16.0,   20.0,  999.0,  999.0,  999.0,  999.0,  999.0,  999.0,  999.0,  999.0,  999.0,  999.0,  999.0,  999.0
2001/03/04 07:50,   23.8,   15.4,   14.6,   13.1,   10.8,   10.8,   10.8,   10.4,   11.1,   12.6,   13.8,   13.3,   13.6,   14.4,   15.1,  999.0,  999.0,  999.0,  999.0,  999.0,  999.0,  999.0,  999.0,  999.0,  999.0,   25.6,  999.0,  999.0,  999.0,  999.0,   41.6,  999.0,  999.0,  999.0,  999.0,   35.6,   32.3,  999.0,   29.2,  999.0,  999.0,  999.0,   20.5,   19.2,   16.8,   15.0,   12.9,  999.0,    9.0,    3.7,    4.2,    3.1,  999.0,    1.0,    0.8,    0.7,    0.9,    0.8
2001/03/04 08:00,   13.5,   11.3,    9.9,    9.5,    8.4,    8.5,    8.8,    9.0,    9.6,   11.4,   13.2,   15.2,   13.5,   13.5,   12.3,   12.8,   13.1,   11.9,  999.0,  999.0,  999.0,   20.1,   20.1,   20.2,   36.3,  999.0,  999.0,   29.9,   12.9,   20.8,  999.0,  999.0,   36.8,   28.5,   20.7,   21.4,   30.9,  999.0,   27.9,   25.5,   16.8,  999.0,  999.0,   17.3,    2.5,    6.4,  999.0,    0.9,    1.6,    1.3,    0.3,  999.0,  999.0,  999.0,    0.3,  999.0,   -0.4,    0.7
2001/03/04 08:10,   15.6,    8.6,    8.5,    7.6,    7.8,    8.4,    8.6,    9.2,   11.5,   13.9,   12.2,   12.1,   12.0,   13.4,   12.3,    8.7,   10.4,    7.2,   15.8,   21.2,  999.0,  999.0,   32.9,  999.0,   12.6,   11.9,   11.9,  999.0,  999.0,  999.0,  999.0,   42.3,   42.2,   42.2,   25.3,    7.2,    7.3,    6.6,   42.0,    5.4,  999.0,  999.0,   42.2,    3.9,   22.1,  999.0,    1.7,    2.3,   21.7,   42.2,  999.0,  999.0,   21.2,  999.0,  999.0,   21.6,    1.1,    3.1
2001/03/04 08:20,  999.0,    6.5,    7.4,    7.3,    7.4,    7.1,    8.5,    9.1,   10.3,   11.6,   11.7,   11.2,   11.7,   11.7,   10.4,  999.0,  999.0,   10.0,   10.2,    7.8,  999.0,    4.1,  999.0,  999.0,  999.0,  999.0,  999.0,  999.0,  999.0,  999.0,  999.0,  999.0,  999.0,    1.0,  999.0,    0.8,  999.0,    1.3,  999.0,  999.0,  999.0,  999.0,  999.0,  999.0,  999.0,    1.8,  999.0,    1.0,  999.0,  999.0,    0.0,    0.9,  999.0,  999.0,  999.0,  999.0,    1.3,  999.0
2001/03/04 08:30,  999.0,  999.0,  999.0,  999.0,  999.0,  999.0,  999.0,  999.0,  999.0,  999.0,  999.0,  999.0,  999.0,  999.0,  999.0,  999.0,  999.0,  999.0,  999.0,  999.0,  999.0,  999.0,  999.0,  999.0,  999.0,  999.0,  999.0,  999.0,  999.0,  999.0,  999.0,  999.0,  999.0,  999.0,  999.0,  999.0,  999.0,  999.0,  999.0,  999.0,  999.0,  999.0,  999.0,  999.0,  999.0,  999.0,  999.0,  999.0,  999.0,  999.0,  999.0,  999.0,  999.0,  999.0,  999.0,  999.0,  999.0,  999.0
2001/03/04 08:40,  999.0,  999.0,  999.0,  999.0,  999.0,  999.0,  999.0,  999.0,  999.0,  999.0,  999.0,  999.0,  999.0,  999.0,  999.0,  999.0,  999.0,  999.0,  999.0,  999.0,  999.0,  999.0,  999.0,  999.0,  999.0,  999.0,  999.0,  999.0,  999.0,  999.0,  999.0,  999.0,  999.0,  999.0,  999.0,  999.0,  999.0,  999.0,  999.0,  999.0,  999.0,  999.0,  999.0,  999.0,  999.0,  999.0,  999.0,  999.0,  999.0,  999.0,  999.0,  999.0,  999.0,  999.0,  999.0,  999.0,  999.0,  999.0
2001/03/04 08:50,  999.0,  999.0,  999.0,  999.0,  999.0,  999.0,  999.0,  999.0,  999.0,  999.0,  999.0,  999.0,  999.0,  999.0,  999.0,  999.0,  999.0,  999.0,  999.0,  999.0,  999.0,  999.0,  999.0,  999.0,  999.0,  999.0,  999.0,  999.0,  999.0,  999.0,  999.0,  999.0,  999.0,  999.0,  999.0,  999.0,  999.0,  999.0,  999.0,  999.0,  999.0,  999.0,  999.0,  999.0,  999.0,  999.0,  999.0,  999.0,  999.0,  999.0,  999.0,  999.0,  999.0,  999.0,  999.0,  999.0,  999.0,  999.0
2001/03/04 09:00,  999.0,  999.0,  999.0,  999.0,  999.0,  999.0,  999.0,  999.0,  999.0,  999.0,  999.0,  999.0,  999.0,  999.0,  999.0,  999.0,  999.0,  999.0,  999.0,  999.0,  999.0,  999.0,  999.0,  999.0,  999.0,  999.0,  999.0,  999.0,  999.0,  999.0,  999.0,  999.0,  999.0,  999.0,  999.0,  999.0,  999.0,  999.0,  999.0,  999.0,  999.0,  999.0,  999.0,  999.0,  999.0,  999.0,  999.0,  999.0,  999.0,  999.0,  999.0,  999.0,  999.0,  999.0,  999.0,  999.0,  999.0,  999.0
2001/03/04 09:10,  999.0,  999.0,  999.0,  999.0,  999.0,  999.0,  999.0,  999.0,  999.0,  999.0,  999.0,  999.0,  999.0,  999.0,  999.0,  999.0,  999.0,  999.0,  999.0,  999.0,  999.0,  999.0,  999.0,  999.0,  999.0,  999.0,  999.0,  999.0,  999.0,  999.0,  999.0,  999.0,  999.0,  999.0,  999.0,  999.0,  999.0,  999.0,  999.0,  999.0,  999.0,  999.0,  999.0,  999.0,  999.0,  999.0,  999.0,  999.0,  999.0,  999.0,  999.0,  999.0,  999.0,  999.0,  999.0,  999.0,  999.0,  999.0
2001/03/04 09:20,   12.2,    6.4,    6.0,    7.0,    8.1,  999.0,  999.0,   10.8,   11.1,   12.6,   11.7,   11.3,   10.6,   11.8,  999.0,  999.0,  999.0,    9.7,    8.2,   10.9,   13.4,  999.0,  999.0,  999.0,  999.0,  999.0,  999.0,  999.0,  999.0,  999.0,  999.0,  999.0,  999.0,  999.0,  999.0,  999.0,   20.8,  999.0,  999.0,  999.0,  999.0,  999.0,  999.0,  999.0,   16.8,  999.0,  999.0,   12.3,  999.0,  999.0,  999.0,    4.4,    2.4,    2.3,  999.0,  999.0,  999.0,  999.0
2001/03/04 09:30,  999.0,  999.0,  999.0,  999.0,  999.0,  999.0,  999.0,  999.0,  999.0,  999.0,  999.0,  999.0,  999.0,  999.0,  999.0,  999.0,  999.0,  999.0,  999.0,  999.0,  999.0,  999.0,  999.0,  999.0,  999.0,  999.0,  999.0,  999.0,  999.0,  999.0,  999.0,  999.0,  999.0,  999.0,  999.0,  999.0,  999.0,  999.0,  999.0,  999.0,  999.0,  999.0,  999.0,  999.0,  999.0,  999.0,  999.0,  999.0,  999.0,  999.0,  999.0,  999.0,  999.0,  999.0,  999.0,  999.0,  999.0,  999.0
2001/03/04 09:40,  999.0,  999.0,  999.0,  999.0,  999.0,  999.0,  999.0,  999.0,  999.0,  999.0,  999.0,  999.0,  999.0,  999.0,  999.0,  999.0,  999.0,  999.0,  999.0,  999.0,  999.0,  999.0,  999.0,  999.0,  999.0,  999.0,  999.0,  999.0,  999.0,  999.0,  999.0,  999.0,  999.0,  999.0,  999.0,  999.0,  999.0,  999.0,  999.0,  999.0,  999.0,  999.0,  999.0,  999.0,  999.0,  999.0,  999.0,  999.0,  999.0,  999.0,  999.0,  999.0,  999.0,  999.0,  999.0,  999.0,  999.0,  999.0
2001/03/04 09:50,  999.0,  999.0,  999.0,  999.0,  999.0,  999.0,  999.0,  999.0,  999.0,  999.0,  999.0,  999.0,  999.0,  999.0,  999.0,  999.0,  999.0,  999.0,  999.0,  999.0,  999.0,  999.0,  999.0,  999.0,  999.0,  999.0,  999.0,  999.0,  999.0,  999.0,  999.0,  999.0,  999.0,  999.0,  999.0,  999.0,  999.0,  999.0,  999.0,  999.0,  999.0,  999.0,  999.0,  999.0,  999.0,  999.0,  999.0,  999.0,  999.0,  999.0,  999.0,  999.0,  999.0,  999.0,  999.0,  999.0,  999.0,  999.0
2001/03/04 10:00,  999.0,  999.0,  999.0,  999.0,  999.0,  999.0,  999.0,  999.0,  999.0,  999.0,  999.0,  999.0,  999.0,  999.0,  999.0,  999.0,  999.0,  999.0,  999.0,  999.0,  999.0,  999.0,  999.0,  999.0,  999.0,  999.0,  999.0,  999.0,  999.0,  999.0,  999.0,  999.0,  999.0,  999.0,  999.0,  999.0,  999.0,  999.0,  999.0,  999.0,  999.0,  999.0,  999.0,  999.0,  999.0,  999.0,  999.0,  999.0,  999.0,  999.0,  999.0,  999.0,  999.0,  999.0,  999.0,  999.0,  999.0,  999.0
2001/03/04 10:10,  999.0,  999.0,  999.0,  999.0,  999.0,  999.0,  999.0,  999.0,  999.0,  999.0,  999.0,  999.0,  999.0,  999.0,  999.0,  999.0,  999.0,  999.0,  999.0,  999.0,  999.0,  999.0,  999.0,  999.0,  999.0,  999.0,  999.0,  999.0,  999.0,  999.0,  999.0,  999.0,  999.0,  999.0,  999.0,  999.0,  999.0,  999.0,  999.0,  999.0,  999.0,  999.0,  999.0,  999.0,  999.0,  999.0,  999.0,  999.0,  999.0,  999.0,  999.0,  999.0,  999.0,  999.0,  999.0,  999.0,  999.0,  999.0
2001/03/04 10:20,  999.0,    6.5,    6.7,    6.7,    7.0,   11.1,   11.7,   11.0,   11.5,  999.0,  999.0,   11.3,   10.7,  999.0,  999.0,  999.0,  999.0,   12.2,  999.0,  999.0,  999.0,  999.0,  999.0,  999.0,  999.0,  999.0,  999.0,  999.0,  999.0,  999.0,  999.0,  999.0,  999.0,  999.0,  999.0,  999.0,  999.0,  999.0,  999.0,  999.0,  999.0,  999.0,  999.0,  999.0,  999.0,  999.0,  999.0,  999.0,  999.0,  999.0,  999.0,  999.0,  999.0,  999.0,  999.0,  999.0,  999.0,  999.0
2001/03/04 10:30,  999.0,    4.4,    3.0,    5.9,    6.9,    9.2,  999.0,    9.7,   11.1,    9.5,  999.0,   11.7,   12.3,   12.6,   12.6,  999.0,  999.0,  999.0,  999.0,  999.0,  999.0,  999.0,  999.0,  999.0,  999.0,  999.0,  999.0,  999.0,  999.0,  999.0,   11.8,  999.0,  999.0,   12.0,  999.0,  999.0,   11.9,   12.0,  999.0,  999.0,  999.0,  999.0,  999.0,  999.0,  999.0,  999.0,  999.0,  999.0,  999.0,  999.0,  999.0,  999.0,  999.0,  999.0,  999.0,  999.0,  999.0,  999.0
2001/03/04 10:40,  999.0,    1.4,    2.1,    3.3,    3.4,    7.3,    8.7,    9.9,    9.9,   12.6,  999.0,   11.1,   11.9,   12.0,  999.0,  999.0,  999.0,  999.0,  999.0,  999.0,  999.0,  999.0,  999.0,  999.0,  999.0,  999.0,  999.0,  999.0,  999.0,  999.0,  999.0,  999.0,  999.0,  999.0,  999.0,  999.0,  999.0,  999.0,   11.8,   11.8,   11.7,  999.0,  999.0,   11.7,  999.0,  999.0,  999.0,  999.0,  999.0,  999.0,  999.0,  999.0,  999.0,  999.0,  999.0,  999.0,  999.0,  999.0
2001/03/04 10:50,  999.0,    0.9,    2.2,    3.1,    6.0,    7.7,    9.0,    9.5,  999.0,  999.0,    9.4,   11.3,   12.4,  999.0,  999.0,  999.0,  999.0,  999.0,  999.0,  999.0,  999.0,  999.0,  999.0,  999.0,  999.0,   11.8,  999.0,  999.0,  999.0,  999.0,  999.0,  999.0,  999.0,  999.0,  999.0,   12.3,  999.0,  999.0,  999.0,   12.2,   12.1,  999.0,  999.0,  999.0,  999.0,  999.0,  999.0,  999.0,  999.0,  999.0,  999.0,  999.0,  999.0,  999.0,  999.0,  999.0,  999.0,  999.0
2001/03/04 11:00,  999.0,   -0.7,    1.0,    2.3,    3.0,    3.7,    5.5,    8.2,    9.0,    9.4,    9.4,    9.7,    9.8,   10.5,  999.0,  999.0,  999.0,  999.0,  999.0,  999.0,  999.0,  999.0,  999.0,  999.0,  999.0,  999.0,  999.0,  999.0,  999.0,  999.0,  999.0,  999.0,  999.0,  999.0,  999.0,  999.0,  999.0,  999.0,  999.0,  999.0,  999.0,  999.0,  999.0,  999.0,  999.0,  999.0,  999.0,  999.0,  999.0,  999.0,  999.0,  999.0,  999.0,  999.0,  999.0,  999.0,  999.0,  999.0
2001/03/04 11:10,  999.0,    1.2,    1.5,    0.6,    0.9,   -0.2,   -0.4,   -0.4,    3.6,    9.9,    9.6,   10.3,   11.6,   10.7,  999.0,  999.0,  999.0,  999.0,  999.0,  999.0,  999.0,  999.0,  999.0,  999.0,  999.0,  999.0,  999.0,  999.0,  999.0,  999.0,  999.0,  999.0,  999.0,  999.0,  999.0,  999.0,  999.0,  999.0,  999.0,  999.0,  999.0,  999.0,  999.0,  999.0,  999.0,  999.0,  999.0,  999.0,  999.0,  999.0,  999.0,  999.0,  999.0,  999.0,  999.0,  999.0,  999.0,  999.0
2001/03/04 11:20,  999.0,    3.0,    4.3,    6.1,    6.6,    6.4,    8.3,    9.2,    9.4,   10.0,   10.1,   10.7,   12.0,   13.7,  999.0,   14.6,  999.0,   15.2,  999.0,  999.0,  999.0,  999.0,  999.0,  999.0,  999.0,   32.1,   32.4,  999.0,   34.9,   35.1,  999.0,  999.0,  999.0,  999.0,  999.0,  999.0,  999.0,  999.0,  999.0,  999.0,  999.0,  999.0,  999.0,  999.0,  999.0,  999.0,   40.9,  999.0,  999.0,   41.3,   42.1,  999.0,   42.6,  999.0,  999.0,  999.0,  999.0,  999.0
2001/03/04 11:30,  999.0,    0.7,    4.3,    5.9,    6.6,    7.6,    8.2,    8.8,    9.2,    8.7,   10.1,   10.7,  999.0,   13.4,   12.7,   13.2,   15.2,    2.7,    2.9,    4.3,    5.0,    7.1,    8.6,    9.8,   21.0,   21.6,    9.6,    9.4,   22.1,   24.1,   27.4,   15.6,   28.4,   15.2,   14.4,   16.8,   41.6,   41.1,  999.0,   40.9,   42.5,   42.1,   41.4,   41.9,  999.0,  999.0,   20.3,   42.3,   41.0,  999.0,   28.0,   21.1,   41.8,   41.7,   41.9,   41.2,   -1.1,   41.9
2001/03/04 11:40,  999.0,    5.4,    5.6,    5.8,    5.8,    6.7,    7.3,    7.6,    7.1,    7.6,    9.0,  999.0,  999.0,  999.0,  999.0,    6.6,   17.2,   17.0,    7.7,   10.7,   21.2,   21.5,   23.7,  999.0,   23.3,   33.9,   35.4,   38.7,   35.6,   39.5,   40.3,   41.8,   42.1,   41.8,   28.2,   14.8,   36.9,   36.4,    6.2,   22.0,   25.4,   16.8,   40.7,  999.0,   41.6,   41.7,   20.0,   41.5,   33.0,   41.6,   -1.6,  999.0,   21.2,   -0.7,   -1.1,   -0.7,   20.9,   41.6
2001/03/04 11:50,  999.0,    3.3,    4.5,    5.3,    5.3,    6.2,    7.8,    8.2,    8.3,    9.1,   10.4,   11.3,   10.5,  999.0,  999.0,  999.0,  999.0,   18.1,  999.0,  999.0,   28.3,  999.0,  999.0,  999.0,   36.0,   36.4,   39.3,  999.0,   42.3,   41.8,   41.9,   42.1,   41.9,   41.6,   42.0,   41.6,   41.7,  999.0,   41.5,   40.9,  999.0,  999.0,  999.0,  999.0,  999.0,  999.0,  999.0,  999.0,  999.0,  999.0,  999.0,  999.0,   -0.6,   -1.4,   -1.2,    0.0,   -0.7,   -1.3
2001/03/04 12:00,  999.0,    1.7,    3.8,    4.4,    5.6,    7.4,    8.2,    8.3,    8.8,   10.8,   10.5,   11.3,   11.6,   13.1,  999.0,  999.0,  999.0,   23.9,   25.7,   27.2,   28.8,   29.2,   31.3,  999.0,   33.6,   34.7,   36.6,   37.3,   38.8,   40.0,   41.2,   41.2,   41.6,   41.9,   41.9,   41.4,   41.5,  999.0,  999.0,  999.0,   31.3,  999.0,  999.0,  999.0,  999.0,  999.0,  999.0,  999.0,  999.0,  999.0,  999.0,  999.0,  999.0,  999.0,  999.0,   -1.4,  999.0,  999.0
2001/03/04 12:10,  999.0,    3.8,    4.1,    6.8,    7.6,    8.9,   10.0,   10.6,   11.6,   11.7,   12.3,   12.9,   13.5,   14.3,   13.8,   16.5,  999.0,  999.0,   26.7,   27.8,   27.9,   28.9,  999.0,   31.6,   32.7,   33.4,   34.9,   35.9,  999.0,   38.0,  999.0,   40.0,   41.2,   41.1,  999.0,  999.0,   41.6,   30.5,   41.3,  999.0,   42.8,  999.0,  999.0,   42.3,   43.2,  999.0,   18.2,  999.0,  999.0,  999.0,   43.0,  999.0,  999.0,  999.0,  999.0,   -0.5,   -0.1,  999.0
2001/03/04 12:20,  999.0,    4.4,    5.3,    5.5,    5.5,    6.3,    7.0,    7.7,    8.9,    9.6,    9.5,   10.2,   10.9,   12.0,   14.7,   15.4,   25.7,   27.8,   26.6,   30.4,   31.6,   30.5,   31.0,   38.6,   36.7,   37.5,   35.5,   39.1,   39.3,  999.0,   40.1,   41.7,   41.4,   41.5,   42.1,  999.0,  999.0,  999.0,  999.0,  999.0,  999.0,  999.0,   22.4,  999.0,   20.7,  999.0,   20.3,  999.0,  999.0,  999.0,  999.0,  999.0,  999.0,  999.0,  999.0,   -0.6,   -0.2,   -0.7
2001/03/04 12:30,  999.0,    3.1,    5.8,    5.9,    6.4,    7.0,    8.4,    9.0,    9.0,    9.2,    9.8,   10.7,   11.2,   13.1,   14.7,   15.6,   16.3,   22.9,  999.0,   24.4,   31.4,   33.7,   37.1,  999.0,   38.6,   41.3,   41.7,   41.7,   42.1,   41.5,   41.3,  999.0,  999.0,  999.0,  999.0,  999.0,  999.0,  999.0,  999.0,  999.0,  999.0,  999.0,  999.0,  999.0,   19.3,  999.0,  999.0,   14.1,  999.0,  999.0,  999.0,  999.0,  999.0,  999.0,  999.0,  999.0,   -0.6,    0.7
2001/03/04 12:40,  999.0,    3.5,    6.7,    7.0,    8.0,    9.2,    9.0,    9.8,   10.8,   10.6,   11.3,   11.8,   12.7,   12.3,    9.1,  999.0,    2.7,   12.5,  999.0,  999.0,  999.0,  999.0,  999.0,    0.3,  999.0,    1.5,  999.0,  999.0,  999.0,   40.6,   41.1,   41.5,   41.2,   35.0,   41.7,   34.3,    7.3,   13.1,   37.5,   29.8,   41.3,  999.0,   21.0,   34.2,  999.0,   27.2,   41.2,   41.3,   41.8,   37.2,  999.0,  999.0,   41.8,   41.7,  999.0,  999.0,  999.0,  999.0
2001/03/04 12:50,  999.0,    3.9,    5.8,    6.2,    6.1,    8.8,   10.4,   12.8,   13.2,   13.6,  999.0,  999.0,  999.0,   13.5,   13.4,   16.0,   13.3,   10.9,   11.7,   11.4,   21.0,  999.0,  999.0,  999.0,  999.0,   33.0,  999.0,   35.6,   36.9,  999.0,  999.0,  999.0,   41.6,   42.0,  999.0,   41.8,   42.2,   41.8,   41.8,   42.2,   41.4,  999.0,   42.3,   42.9,   42.0,  999.0,  999.0,  999.0,  999.0,   42.3,  999.0,  999.0,  999.0,  999.0,   41.4,  999.0,   42.1,   42.2
2001/03/04 13:00,  999.0,    5.0,    5.3,    5.6,    7.4,    8.8,   10.7,   11.2,   11.8,   11.2,   10.7,  999.0,  999.0,    9.9,   10.0,   10.0,    9.0,  999.0,   12.8,  999.0,  999.0,  999.0,   28.2,   27.8,   29.5,   31.4,   32.2,   35.0,   35.3,   34.2,  999.0,   39.4,   37.1,   41.5,   41.9,   41.8,   41.1,   41.9,   41.8,  999.0,  999.0,   42.4,   41.6,   41.8,   42.2,   42.0,  999.0,   41.2,   41.9,   41.5,   41.4,  999.0,   41.7,   41.4,   41.6,   41.8,  999.0,   41.2
2001/03/04 13:10,  999.0,    4.6,    5.2,    7.0,    6.8,    8.1,    8.9,   10.1,   10.5,   11.0,   11.6,   10.1,  999.0,   12.2,   12.9,   14.0,   15.3,  999.0,  999.0,  999.0,  999.0,   21.5,   33.8,  999.0,  999.0,   37.9,   35.4,   34.2,   38.4,   39.1,   40.1,   40.5,  999.0,   41.8,   42.0,   42.1,   41.6,   41.7,   41.8,   41.9,   41.6,   42.0,   41.9,   41.9,   41.9,  999.0,   41.4,   42.3,   42.1,   41.6,  999.0,   41.9,   42.0,   41.5,   41.6,   42.2,   41.8,   42.0
2001/03/04 13:20,  999.0,    3.9,    5.0,    4.5,    6.4,    7.6,    8.4,   10.3,   10.9,   12.0,   12.4,  999.0,  999.0,   11.9,   14.4,   15.6,   16.0,   17.4,   24.2,  999.0,   31.4,   32.4,   34.7,   35.8,  999.0,   37.8,  999.0,   41.5,   41.4,   41.9,   41.9,   41.4,   41.2,   41.9,   41.6,   42.0,   41.7,   42.1,   41.6,   42.3,   42.1,   42.2,   41.7,   42.1,   41.6,   41.9,   41.8,   42.3,   41.3,   42.1,   42.3,   42.7,   42.0,   42.4,   41.9,   42.0,   42.3,   41.6
2001/03/04 13:30,  999.0,    4.8,    5.4,    5.4,    7.1,    8.4,    9.0,   11.2,   12.9,   12.5,   10.4,   10.6,   11.5,  999.0,   10.2,   12.0,   13.2,   13.5,   14.0,   14.8,   22.3,   17.8,  999.0,   15.4,   22.5,  999.0,   32.1,  999.0,  999.0,  999.0,   42.9,   36.9,   39.9,   40.4,   41.1,   41.4,   41.9,  999.0,   41.5,   41.5,   42.0,   42.4,   42.2,   42.1,  999.0,   41.9,   41.2,   41.7,   43.0,   41.4,   42.2,   42.2,  999.0,   41.3,   41.9,   41.6,   41.8,   42.1
2001/03/04 13:40,  999.0,    7.3,    7.4,    7.9,    7.2,    7.4,    8.2,    9.3,    9.4,    8.9,    9.6,   10.1,   10.5,   10.9,   12.4,   12.9,   14.5,   16.1,   17.0,   18.1,   19.0,   19.3,   30.8,  999.0,   22.2,  999.0,  999.0,  999.0,   37.3,  999.0,   39.1,   40.4,   40.4,   42.0,   42.7,   41.8,   41.5,   41.2,  999.0,   41.1,   41.3,   41.9,   42.0,   41.3,   22.5,  999.0,  999.0,   41.8,   41.9,    0.7,   20.5,   11.1,   41.5,   17.9,   11.2,  999.0,   42.1,    3.2
2001/03/04 13:50,  999.0,    6.2,    5.3,    4.9,    5.9,    7.6,    7.2,    7.5,   11.1,   10.6,    9.1,    7.9,   12.4,   13.5,   12.0,   12.2,   12.6,   13.4,   14.1,   15.4,   15.5,  999.0,  999.0,  999.0,  999.0,   18.5,   33.3,  999.0,   35.2,  999.0,  999.0,   38.0,  999.0,   40.0,  999.0,   41.4,  999.0,  999.0,   42.3,   41.0,   41.8,   42.5,   42.1,  999.0,   42.3,   41.5,   42.0,   42.7,   42.4,  999.0,  999.0,   41.3,  999.0,   41.9,  999.0,  999.0,   41.7,  999.0
2001/03/04 14:00,  999.0,    2.3,    4.3,    5.4,    7.1,    7.9,    8.8,   10.1,   11.2,   10.4,    9.6,   10.6,   10.3,   10.8,   11.2,   12.6,    9.5,   10.7,   12.3,  999.0,    2.5,   12.6,  999.0,   22.0,   22.2,   21.5,   13.8,   21.6,   16.1,   11.6,   14.4,   12.8,   21.7,   19.4,   31.2,   32.0,   31.8,  -11.3,   31.6,   21.7,  999.0,    1.0,   21.6,   22.1,  999.0,    0.7,    0.5,   41.8,  999.0,   42.6,    1.5,   41.9,    0.0,    0.1,  999.0,    0.4,  999.0,    0.9
2001/03/04 14:10,  999.0,    6.8,    6.8,    8.4,    9.2,    8.1,    9.0,    8.8,   10.1,   10.3,    9.5,   11.1,   10.8,   12.4,   13.7,   14.7,   15.6,   17.2,  999.0,  999.0,  999.0,   21.5,   22.6,   18.0,   18.1,  999.0,  999.0,   42.2,   41.2,   21.0,   25.1,   23.6,   32.1,   41.9,   13.4,   21.3,  999.0,    0.7,    1.9,   41.2,  999.0,   -4.7,    8.2,   21.2,   21.0,   41.6,    1.0,    0.3,  -42.5,   21.3,  -42.4,   41.5,  -42.2,   11.1,   20.8,   21.4,   42.2,  999.0
2001/03/04 14:20,  999.0,    7.8,    6.5,    8.1,    7.5,    6.9,    7.0,    8.9,   10.2,   10.3,   11.0,   11.1,   10.9,   11.4,   11.3,   10.1,    9.3,    9.3,  999.0,    6.6,  999.0,  -25.6,    9.9,    2.8,  -15.7,    0.8,    6.5,  -15.6,  999.0,   -6.0,    4.4,    0.7,  -17.8,  -18.3,  -39.3,    1.0,  -40.9,  999.0,  999.0,  -41.7,    0.4,  -20.4,  999.0,  999.0,    0.4,    1.1,  -20.9,    0.7,  -41.6,    0.6,    1.0,  -41.7,  999.0,  -41.4,  -20.3,    0.4,    0.8,  -20.5
2001/03/04 14:30,  999.0,    5.5,    6.5,    8.3,    6.9,    7.9,    8.2,    8.9,   10.6,   10.1,   10.1,   10.5,   10.8,    9.7,   10.5,   10.8,   12.2,   13.8,   10.7,  999.0,  999.0,  999.0,  999.0,  999.0,  -15.9,  -15.0,  999.0,  -11.9,  -10.1,   -8.5,   -8.2,   -8.5,   -7.4,   -5.4,   -5.6,   -3.6,   -3.1,   -2.9,   -1.3,   -2.0,   -0.9,   -0.5,   -0.6,   -1.0,  -14.7,   -2.3,   -0.6,   -0.7,   -0.6,   -0.5,   -0.6,   -1.0,  999.0,   -0.9,   -0.9,   -0.5,   -0.9,   -0.7
2001/03/04 14:40,  999.0,    3.8,    5.1,    7.7,    7.3,    8.6,    9.2,    9.5,   10.8,   11.5,   11.5,   10.5,   11.1,   10.5,   10.8,   13.2,    7.6,  999.0,  999.0,    7.3,    8.0,    2.3,  999.0,  999.0,  999.0,  999.0,  999.0,   -7.1,   -4.8,   -4.6,   -3.1,   -2.3,   -2.3,   -1.3,   -0.8,   -0.8,   -0.9,   -1.2,   -0.9,   -0.4,   -0.5,    0.2,   -0.5,   -1.3,   -0.7,   -0.5,   -0.5,  999.0,   -0.4,   -0.4,   -1.0,   -1.3,   -0.4,   -0.6,   -0.2,   -0.6,   -0.6,   -0.6
2001/03/04 14:50,  999.0,    4.3,    4.6,    7.5,    7.6,    7.3,    9.1,    8.9,    9.1,   10.3,   11.0,   11.6,   11.2,   12.4,   11.9,   11.7,   16.6,  999.0,  999.0,  999.0,  999.0,  999.0,  999.0,  999.0,  999.0,  999.0,  999.0,  999.0,  999.0,  999.0,  999.0,   -0.5,   -0.5,   -0.6,   -0.9,   -0.6,   -1.0,   -1.0,   -0.7,   -0.4,   -0.9,   -0.6,  999.0,   -1.0,   -1.1,   -0.7,   -0.4,   -0.8,   -0.1,   -0.1,   -0.5,   -0.6,   -0.7,   -0.5,   -0.5,   -0.9,   -0.9,   -0.7
2001/03/04 15:00,  999.0,    6.0,    6.1,    3.2,    4.4,    6.6,    8.5,    9.0,   10.4,   10.2,   11.1,   11.4,   10.6,   11.5,   11.9,   13.1,   10.7,   14.1,  999.0,  999.0,  999.0,   10.1,  999.0,  999.0,  999.0,  999.0,  999.0,  999.0,  999.0,  999.0,  999.0,   -0.2,   -0.0,   -0.2,   -0.3,   -0.6,   -0.8,   -1.1,   -0.6,   -0.9,   -0.9,   -1.3,   -1.0,  999.0,   -0.5,   -0.7,   -0.8,   -0.8,   -0.6,   -0.7,   -0.5,   -0.3,    0.1,   -0.6,   -0.7,   -0.6,   -0.8,   -0.5
2001/03/04 15:10,  999.0,    2.9,    6.9,    7.0,    6.7,    6.7,    6.8,    8.5,    8.8,    9.9,   11.3,   12.3,   13.0,   14.9,   16.1,   17.3,   17.9,   19.4,   19.9,   16.0,  999.0,  999.0,  999.0,  999.0,  999.0,  999.0,  999.0,    7.5,  999.0,  999.0,  999.0,   -0.2,  999.0,    0.1,   -0.6,  999.0,  999.0,   -1.2,  999.0,   -0.6,   -0.6,   -0.7,  999.0,   -1.0,   -0.6,   -0.3,  999.0,   -0.4,  999.0,   -0.3,   -0.6,   -0.9,   -1.0,   -0.7,  999.0,   -1.2,   -0.3,   -0.7
2001/03/04 15:20,  999.0,    4.9,    5.5,    7.6,    7.6,    7.7,    8.7,    8.4,    9.4,    9.5,   10.1,    9.6,    9.4,   10.6,   11.0,   11.4,   11.5,    9.9,   10.4,   10.5,   11.0,   12.1,    9.5,   27.4,   26.5,   28.3,   28.2,  999.0,  999.0,  999.0,   38.0,   39.6,  999.0,   41.9,   42.1,  999.0,   42.0,   42.9,   41.9,   42.1,  999.0,  999.0,  999.0,   22.9,  999.0,  999.0,    0.8,    0.7,  999.0,  999.0,    0.6,  999.0,    1.0,    1.0,   -0.4,  999.0,  999.0,    1.4
2001/03/04 15:30,    6.8,    3.3,    6.4,    7.6,    8.1,    7.0,    7.7,    8.0,    9.1,    9.6,    8.5,    8.9,    9.0,    9.9,   12.3,   15.2,   18.6,   17.9,  999.0,   30.3,   28.5,   29.9,   41.0,   38.9,   41.7,   41.2,  999.0,   42.0,   42.3,   41.4,   41.6,   41.9,   41.8,   41.4,   41.6,   33.1,   24.2,   34.7,   41.5,   40.9,   41.6,   41.9,   41.9,   41.8,   41.6,   42.0,   42.4,  999.0,   41.7,   41.8,   41.7,   42.3,   30.9,   20.5,   -0.3,   42.3,   -1.3,   42.0
2001/03/04 15:40,    0.1,    5.8,    6.3,    7.1,    7.5,    8.0,    8.6,    9.3,   10.2,   11.4,   11.5,   11.7,   11.1,   11.7,   12.5,   13.5,   14.0,   15.3,   14.1,   15.7,   17.7,   19.8,   21.6,   21.8,   28.6,   20.5,   29.4,   31.2,   41.6,   24.3,   19.4,   -3.3,   42.5,   42.6,  999.0,   42.3,   41.5,   41.3,   41.5,   41.5,   41.3,   41.7,   32.6,   12.6,  999.0,   37.9,   32.9,   10.7,    5.9,  999.0,   33.8,  999.0,   19.4,   31.1,   -0.1,   -0.3,    0.0,   20.6
2001/03/04 15:50,  999.0,    7.2,    6.7,    7.4,    7.6,    7.9,    8.8,    9.7,   10.6,   11.1,   11.1,   11.7,   13.6,   11.7,   12.3,   11.7,  999.0,   12.6,   11.3,   13.6,   13.6,   12.9,   14.9,   14.0,   15.7,   41.1,   22.9,   14.2,   21.1,    0.4,   12.7,   14.3,   13.9,   14.1,   14.8,   14.9,    1.2,    0.8,    0.6,   41.3,   14.2,    0.1,    1.5,   41.1,   14.1,   21.2,  999.0,   41.2,   14.8,   14.7,    0.8,   20.9,    0.6,   14.4,   14.2,    0.9,   14.2,   41.6
2001/03/04 16:00,  999.0,    6.9,    7.1,    8.2,    8.8,    8.4,    8.8,   10.3,   10.0,    9.3,    9.7,   10.2,   10.2,   10.0,   10.9,    9.1,    9.9,   12.3,   12.3,   13.2,   15.2,   16.2,   16.9,   17.6,   18.2,  999.0,   19.6,   18.7,   17.2,   17.7,   19.3,   11.8,   12.0,    7.5,   15.3,    7.6,   10.2,    0.4,    8.9,   20.0,    1.0,    2.0,   21.9,    0.9,    0.2,    0.6,    0.4,    0.6,   14.2,    0.1,   -0.0,    1.1,   14.4,    0.4,    0.2,    7.2,   11.8,   -6.5
2001/03/04 16:10,  999.0,    7.8,    9.5,    9.2,    9.3,    8.6,    9.2,    9.3,    8.6,    8.2,    9.3,    9.8,    8.9,    9.9,   10.2,   10.1,   10.3,    9.2,   10.0,   10.8,   11.7,   13.5,   14.7,   14.2,   16.7,   18.4,   12.1,   21.4,   14.1,   17.9,   21.3,   25.0,   26.2,   25.7,   26.1,   26.9,   26.5,  999.0,   28.5,   31.2,   29.6,   29.6,   21.8,   40.1,   41.0,   41.0,   41.7,   41.4,   41.6,   41.6,   42.0,   41.6,   41.5,   42.1,   41.7,   41.7,   41.9,   42.3
2001/03/04 16:20,  999.0,    9.9,    9.6,    9.7,    9.8,   10.0,   10.2,   10.6,   10.8,   11.7,   10.7,    9.2,    9.8,   10.6,   10.8,   11.0,   11.8,   12.2,   12.1,   12.8,   13.5,   13.2,   12.6,   12.9,   13.2,   12.3,   16.0,   14.4,   15.5,   20.4,   21.9,   18.3,   25.2,   23.8,   24.4,   35.0,   27.8,   22.5,   29.0,   39.2,   40.9,   41.6,   28.9,   41.7,   42.0,   41.5,  999.0,   27.9,   22.9,   41.7,   42.1,    0.5,  999.0,   21.2,  999.0,   28.0,   28.2,   28.0
2001/03/04 16:30,  999.0,   10.3,   10.1,   10.3,   10.3,   10.4,   10.3,   10.2,   11.2,   11.2,    9.8,   10.1,   10.2,   10.1,   10.4,   10.2,   11.8,   12.3,   11.8,   13.5,   12.1,   11.7,   12.9,   13.4,   14.1,   14.8,  999.0,  999.0,   26.9,   28.6,  999.0,   27.9,  999.0,   32.5,   31.1,   37.9,   35.5,   40.2,   39.1,   42.4,   42.4,   42.1,   41.8,   41.8,   41.6,   41.5,   41.7,   41.5,   41.9,   41.6,   41.7,   42.2,   41.8,   42.1,   42.0,   41.7,   41.9,   41.7
2001/03/04 16:40,  999.0,    8.7,    9.8,   10.4,    9.8,   11.0,   10.9,   10.7,   10.0,    9.6,    9.3,    9.6,   10.1,   10.6,   11.5,   12.2,   13.0,   13.7,  999.0,   12.3,   12.4,   12.7,   13.1,   12.4,   12.8,  999.0,  999.0,   11.0,   21.0,   25.3,  999.0,   28.6,   28.2,   32.8,   37.6,   39.2,   35.5,   40.7,  999.0,   41.2,   38.1,   41.5,   41.8,   42.0,   42.0,   42.3,   39.3,   38.4,   41.6,   40.7,   42.4,   42.0,   42.1,   42.1,  999.0,   42.3,   41.4,   41.8
2001/03/04 16:50,  999.0,    9.3,    9.5,    9.9,   10.1,   10.5,   10.6,   10.8,   10.9,   10.7,   11.6,   12.0,   12.0,   12.1,   11.7,   11.8,   12.3,   11.5,   10.7,   10.9,   10.9,   10.4,   13.4,  999.0,  999.0,  999.0,  999.0,  999.0,   22.0,   22.5,   27.2,  999.0,   29.9,   31.6,   32.9,   33.8,   34.6,  999.0,   38.0,  999.0,   39.8,  999.0,  999.0,   41.8,   41.9,   41.9,   42.0,   42.3,  999.0,  999.0,   42.0,   42.0,   42.2,   41.8,   42.5,   42.8,  999.0,   42.1
2001/03/04 17:00,  999.0,    8.8,   10.1,   10.8,   10.5,   10.7,   10.5,   10.7,   11.5,   12.1,   11.5,   11.5,   11.2,   11.1,   10.7,   10.8,   10.1,   10.0,    9.6,    9.2,    8.9,  999.0,  999.0,  999.0,    9.5,  999.0,  999.0,  999.0,  999.0,  999.0,   28.5,  -13.1,   31.0,   33.2,   34.9,   14.7,   23.7,   25.2,   -1.5,   41.5,   20.6,   41.1,   20.1,  999.0,   20.1,   41.9,   41.8,   24.3,   15.9,  999.0,  -10.2,   16.5,   42.0,   41.7,   42.2,   -7.2,   18.9,   19.4
2001/03/04 17:10,  999.0,   11.4,   11.7,   12.2,   12.3,   11.9,   12.6,   12.0,   11.5,   11.3,   11.0,   11.2,   11.2,   11.0,   11.3,   11.3,   11.6,   11.1,    9.6,   10.1,    9.7,    9.3,    8.8,   10.7,   11.0,    8.7,  999.0,  999.0,  999.0,  999.0,  999.0,  999.0,  999.0,  999.0,  999.0,  999.0,  999.0,  999.0,  999.0,  999.0,  999.0,  999.0,   17.4,   -1.0,   -0.3,   -0.6,  999.0,  999.0,  999.0,   -1.7,  999.0,   -0.4,    0.4,   -0.5,   -0.4,   -1.0,   -0.9,  999.0
2001/03/04 17:20,  999.0,   12.0,   12.9,   12.2,   11.8,   11.7,   11.1,   11.2,   11.2,   10.1,   10.5,   10.4,    9.7,    9.8,    9.2,   10.1,    9.7,    9.4,    8.0,    7.4,    9.2,   10.5,   11.8,  999.0,  999.0,  999.0,  999.0,  999.0,  999.0,  999.0,  999.0,  999.0,  999.0,  999.0,  999.0,  999.0,  999.0,  999.0,  999.0,  999.0,  999.0,  999.0,  999.0,   -0.4,   -0.6,   -0.4,   -0.3,  999.0,   -0.8,   -1.1,   -0.6,   -1.0,   -0.5,   -0.4,   -1.0,   -0.9,   -0.5,   -1.1
2001/03/04 17:30,  999.0,   11.2,   12.3,   13.0,   11.7,   13.2,   11.9,   11.7,   11.3,   11.1,   10.7,   11.1,   10.3,  999.0,   10.1,   10.0,   10.6,   10.1,   10.3,   12.2,   11.4,   11.7,   12.4,  999.0,  999.0,  999.0,  999.0,  999.0,  999.0,  999.0,  999.0,  999.0,  999.0,    4.4,  999.0,  999.0,  999.0,  999.0,  999.0,  999.0,  999.0,  999.0,   -0.3,   -0.3,   -1.2,   -1.0,   -0.4,   -0.5,   -1.6,   -0.8,  999.0,   -0.9,   -0.7,   -0.7,   -0.4,   -0.9,   -0.3,   -0.7
2001/03/04 17:40,  999.0,   12.5,   13.4,   12.7,   11.9,   12.3,  999.0,   11.8,   11.5,   11.8,   10.8,   11.3,   12.0,   12.3,   12.4,   12.5,   10.9,   10.2,   10.5,    9.9,   10.1,   10.0,  999.0,  999.0,  999.0,  999.0,  999.0,  999.0,  999.0,  999.0,  999.0,  999.0,  999.0,  999.0,  999.0,  999.0,  999.0,    0.9,  999.0,  999.0,  999.0,  999.0,  999.0,   -1.0,   -0.6,   -1.1,   -1.2,   -0.5,   -0.7,   -0.7,   -0.8,   -0.8,   -0.6,   -0.5,   -0.1,  999.0,   -0.6,   -0.6
2001/03/04 17:50,  999.0,   10.6,   11.9,   11.4,   11.3,   11.7,   11.1,   11.6,   11.3,   11.7,   11.2,   11.7,   11.8,   12.5,   11.1,   11.2,    9.6,    9.1,    9.3,    9.6,   11.1,   11.0,  999.0,  999.0,  999.0,  999.0,  999.0,   14.2,  999.0,  999.0,  999.0,  999.0,    3.8,  999.0,  999.0,  999.0,  999.0,  999.0,  999.0,  999.0,  999.0,   -0.5,   -0.4,   -0.8,   -1.0,   -0.4,   -0.5,   -0.6,   -0.4,   -0.6,   -0.7,   -0.7,  999.0,   -0.8,   -0.7,   -0.7,   -0.2,   -0.7
2001/03/04 18:00,  999.0,   12.4,   12.2,   12.7,   11.9,   11.4,   11.2,   11.9,   12.1,   11.8,   11.7,   11.7,   11.9,   12.0,   11.4,   10.3,    8.8,   10.2,  999.0,   13.9,  999.0,   12.7,   14.0,  999.0,   14.8,  999.0,  999.0,  999.0,  999.0,  999.0,  999.0,  999.0,  999.0,  999.0,  999.0,  999.0,  999.0,  999.0,  999.0,  999.0,  999.0,    4.3,  999.0,   -0.8,   -1.0,   -0.3,   -1.6,  999.0,   -0.4,  999.0,   -1.1,   -1.2,   -0.8,   -0.9,   -0.9,   -0.9,  999.0,   -0.7
2001/03/04 18:10,  999.0,   12.9,   12.1,   11.7,   11.5,   11.6,   11.6,   11.4,   11.3,   11.1,   11.4,   12.3,   12.3,   10.8,   11.6,   11.2,   11.1,   11.2,   12.9,   11.1,   12.2,   15.3,   17.4,  999.0,  999.0,  999.0,  999.0,  999.0,  999.0,  999.0,  999.0,  999.0,  999.0,  999.0,  999.0,  999.0,  999.0,  999.0,  999.0,  999.0,  999.0,  999.0,  999.0,  999.0,  999.0,  999.0,   -0.5,  999.0,   -1.0,    0.1,   -0.1,   -0.8,   -0.3,    0.0,  999.0,   -1.3,   -0.8,  999.0
2001/03/04 18:20,  999.0,   12.2,   10.6,   10.9,   11.1,   11.7,   11.9,   11.7,   11.8,   11.3,   10.9,   11.3,   11.3,   10.4,   10.3,    9.7,   10.3,   10.4,    9.1,    9.7,  999.0,    9.6,  999.0,   14.0,   14.3,  999.0,  999.0,   17.9,  999.0,  999.0,  999.0,  999.0,  999.0,  999.0,   10.1,  999.0,  999.0,  999.0,  999.0,  999.0,  999.0,  999.0,  999.0,  999.0,  999.0,  999.0,  999.0,   -0.2,   -0.3,   -0.7,  999.0,   -0.1,  999.0,   -0.6,   -1.0,  999.0,   -0.8,   -0.3
2001/03/04 18:30,  999.0,   13.1,   13.7,   13.3,   13.4,   12.4,   12.7,   12.0,   11.6,   11.3,   11.4,   10.6,   10.8,    9.8,   10.2,    8.9,    9.2,    9.0,    8.2,    9.3,   10.5,  999.0,   11.2,   11.0,   11.2,   12.7,   14.3,   14.6,   15.7,  999.0,   15.4,   18.7,   21.5,  999.0,  999.0,  999.0,  999.0,  999.0,  999.0,  999.0,  999.0,  999.0,  999.0,  999.0,  999.0,  999.0,  999.0,  999.0,  999.0,  999.0,  999.0,   -1.0,   -0.3,  999.0,   -0.6,   -0.7,   -1.0,   -1.6
2001/03/04 18:40,  999.0,  999.0,   13.6,   13.5,   13.7,   12.8,   12.7,   12.9,   12.2,   11.1,   10.5,    9.3,   10.4,    8.7,    8.5,    7.9,    8.0,    8.8,    8.9,  999.0,   11.6,   10.9,   10.6,   11.1,   11.0,   10.6,   12.0,   14.2,   13.1,   13.9,   15.6,   16.0,  999.0,  999.0,  999.0,   22.1,   22.9,  999.0,  999.0,   20.7,  999.0,  999.0,  999.0,  999.0,  999.0,  999.0,  999.0,  999.0,  999.0,  999.0,   -0.3,  999.0,  999.0,   -0.3,   -0.3,   -0.3,  999.0,  999.0
2001/03/04 18:50,  999.0,   10.4,  999.0,  999.0,  999.0,    9.9,   11.7,   11.7,   11.7,   10.7,    9.9,    9.6,   10.0,    8.9,    8.5,    8.5,    8.1,    8.4,    8.8,    8.6,    9.3,    9.8,    9.6,    9.5,    9.3,   11.0,   12.0,   12.4,   14.7,   13.2,  999.0,  999.0,  999.0,  999.0,   22.1,  999.0,  999.0,  999.0,  999.0,  999.0,  999.0,  999.0,  999.0,  999.0,  999.0,  999.0,  999.0,  999.0,  999.0,  999.0,  999.0,  999.0,  999.0,  999.0,    0.0,   -0.2,  999.0,  999.0
2001/03/04 19:00,  999.0,    5.7,    7.0,   11.4,    7.5,  999.0,  999.0,    9.5,    9.0,    9.7,   10.5,    9.4,    9.6,    9.9,    9.6,    8.7,    8.7,    8.1,    9.0,    9.8,    9.8,    9.7,    9.1,    9.7,   10.4,    8.8,   11.4,   12.3,   12.1,  999.0,  999.0,  999.0,  999.0,  999.0,   12.1,   15.6,   16.7,   21.5,  999.0,  999.0,  999.0,  999.0,  999.0,  999.0,  999.0,  999.0,   36.0,  999.0,  999.0,  999.0,  999.0,  999.0,  999.0,  999.0,  999.0,  999.0,  999.0,  999.0
2001/03/04 19:10,  999.0,    4.7,    5.8,   10.3,  999.0,  999.0,  999.0,  999.0,    6.8,    8.8,   11.0,   10.3,   10.7,    9.8,    9.1,    9.2,    8.7,    8.2,    8.8,    9.7,    9.9,    9.6,    9.7,   11.5,   11.5,    9.9,   10.0,   11.1,   12.0,   12.0,    6.3,    9.9,   12.9,   11.7,   14.9,   15.7,   13.5,  999.0,  999.0,  999.0,  999.0,   18.4,  999.0,  999.0,  999.0,  999.0,  999.0,  999.0,  999.0,  999.0,  999.0,   36.9,   37.6,  999.0,  999.0,  999.0,   39.5,  999.0
2001/03/04 19:20,  999.0,   11.0,   11.3,   12.3,    8.3,   11.4,   12.6,   11.5,   11.7,   10.5,    8.3,    8.0,    9.9,   10.8,    9.9,   10.6,   10.6,    9.2,    8.9,    9.2,    9.6,    9.5,    8.9,    9.8,    9.2,    9.5,   10.8,   11.1,  999.0,  999.0,   15.2,    9.8,   11.0,   15.2,   14.6,   11.9,   13.7,   16.4,  999.0,  999.0,  999.0,  999.0,  999.0,  999.0,  999.0,  999.0,  999.0,  999.0,  999.0,   32.8,  999.0,  999.0,  999.0,  999.0,  999.0,   39.1,  999.0,  999.0
2001/03/04 19:30,  999.0,   11.1,   11.1,   11.9,   10.8,    8.3,   11.1,   12.7,    7.2,    7.1,   10.3,    9.8,   11.5,   11.3,   11.4,   11.0,   11.0,    9.0,   10.0,    9.7,    9.6,    9.5,    9.3,    9.7,    8.5,   11.2,   14.6,  999.0,   15.5,  999.0,  999.0,  999.0,   19.6,   20.3,   21.0,  999.0,  999.0,  999.0,  999.0,  999.0,  999.0,  999.0,  999.0,  999.0,  999.0,  999.0,  999.0,  999.0,  999.0,  999.0,  999.0,  999.0,  999.0,  999.0,  999.0,  999.0,  999.0,  999.0
2001/03/04 19:40,  999.0,   10.4,   11.3,   13.0,  999.0,   11.4,  999.0,    4.4,  999.0,    9.9,   12.3,   12.4,   12.4,   11.9,   10.9,   10.3,   10.2,    9.9,    9.5,    8.8,    8.9,    8.7,    8.1,    8.6,    9.3,   10.0,   11.6,  999.0,   12.8,   13.8,  999.0,  999.0,  999.0,   17.0,   19.1,   19.5,   26.4,   19.3,  999.0,  999.0,  999.0,   28.7,  999.0,  999.0,  999.0,  999.0,  999.0,  999.0,   33.5,  999.0,   35.6,   35.4,  999.0,  999.0,  999.0,  999.0,  999.0,   38.5
2001/03/04 19:50,  999.0,    6.1,   11.1,   13.1,   14.3,   11.9,   11.5,  999.0,  999.0,   15.9,   11.6,   11.8,   11.4,   11.1,   11.8,   10.4,    9.7,    9.5,    9.2,    9.1,    7.9,    8.1,    8.7,    8.2,    7.9,   10.6,   10.5,  999.0,   10.7,   12.6,   14.5,   15.7,  999.0,   16.9,   14.7,  999.0,  999.0,  999.0,  999.0,  999.0,  999.0,  999.0,  999.0,   31.3,  999.0,  999.0,    6.2,    6.9,   35.5,   37.4,  999.0,   38.8,   39.3,   41.2,  999.0,  999.0,  999.0,   32.3
2001/03/04 20:00,  999.0,    9.8,   11.0,   11.6,   11.9,   12.9,   13.8,  999.0,    9.3,    8.6,   10.3,   10.8,   10.8,   10.9,   10.6,    9.4,   10.0,    8.8,    9.4,   10.3,    9.5,    8.5,    7.5,    8.1,    8.0,    9.5,   11.1,   10.2,   11.3,   12.8,  999.0,   12.6,   12.4,   11.7,   12.6,  999.0,  999.0,   18.3,   20.8,  999.0,  999.0,  999.0,  999.0,   26.0,   31.3,  999.0,  999.0,   31.0,   27.8,  999.0,   34.7,   36.0,  999.0,  999.0,   34.7,   36.4,   41.8,   42.5
2001/03/04 20:10,  999.0,    9.8,   11.9,   10.8,   13.9,   12.7,    7.6,  999.0,  999.0,    6.2,    9.5,   11.0,   10.3,   10.4,   10.5,   11.7,   10.0,    9.2,    9.1,    9.9,    9.1,    8.6,    8.7,    9.8,  999.0,  999.0,  999.0,  999.0,   11.7,   13.2,   10.0,   15.1,   20.4,   13.6,   13.9,   12.6,   24.1,   14.5,   31.3,  999.0,   25.6,   26.6,  999.0,   29.1,  999.0,  999.0,  999.0,   33.6,   38.4,   38.7,  999.0,  999.0,   39.8,   39.6,   42.0,   41.9,   41.8,  999.0
2001/03/04 20:20,  999.0,    9.8,   11.2,   12.5,  999.0,   14.8,   11.3,    8.5,    4.6,  999.0,  999.0,    5.6,    6.3,    9.7,    9.1,   10.1,    9.2,    8.8,    8.7,    8.7,    8.9,    9.3,    8.3,    9.2,    9.2,   10.8,    9.7,   10.9,   10.1,   10.0,   11.6,   10.1,   12.0,   11.2,   11.0,   11.5,   11.3,   11.1,   14.0,  999.0,  999.0,   25.1,   24.6,  999.0,  999.0,   26.4,   28.5,   32.9,  999.0,   34.5,  999.0,  999.0,   36.3,   34.6,  999.0,   42.1,   41.2,   39.9
2001/03/04 20:30,  999.0,   10.7,   10.3,   12.4,    9.9,  999.0,    9.4,    1.9,    1.4,   -1.4,  999.0,  999.0,    8.9,    9.7,    9.5,    9.8,    9.6,    9.0,    9.9,    9.8,  999.0,    9.7,  999.0,    9.3,    9.7,    9.9,    9.4,   10.0,   11.4,   11.2,   11.9,   10.9,   11.2,   11.3,   11.2,   12.2,   12.2,   13.4,  999.0,   10.2,   10.6,  999.0,   11.6,  999.0,  999.0,  999.0,  999.0,   19.2,   30.0,   34.9,   20.7,   21.5,   34.5,  999.0,  999.0,  999.0,  999.0,   39.3
2001/03/04 20:40,  999.0,   10.6,   10.6,   13.4,   11.9,   12.3,  999.0,  999.0,    4.3,    5.6,    7.8,  999.0,  999.0,    2.4,    6.2,    9.8,    9.7,    9.9,    9.4,    9.8,   10.1,    9.3,    8.9,    9.3,    9.8,   10.3,    9.4,  999.0,   10.2,   11.2,   11.1,   11.6,   13.1,   12.9,   15.9,  999.0,  999.0,  999.0,  999.0,   10.6,  999.0,  999.0,   13.4,  999.0,  999.0,  999.0,  999.0,  999.0,  999.0,   37.6,  999.0,   39.7,   40.1,   37.2,   41.1,  999.0,   39.1,  999.0
2001/03/04 20:50,  999.0,    9.4,   11.5,   11.4,   11.2,   11.6,   11.6,    9.2,    5.5,  999.0,  999.0,   10.3,    6.0,    8.1,   10.8,    9.7,    9.2,    8.8,    9.3,    9.6,    9.7,    9.6,   10.4,   10.2,   10.6,   10.7,   10.9,   11.0,   11.5,   11.9,   11.1,   11.0,   12.9,   12.8,   12.8,   13.9,   12.0,   16.5,  999.0,  999.0,  999.0,   24.9,  999.0,  999.0,  999.0,  999.0,   33.2,   32.9,   34.9,   35.8,   37.8,   34.9,   37.7,   39.7,   40.1,   41.8,  999.0,   41.5
2001/03/04 21:00,  999.0,    6.1,  999.0,   14.4,   13.2,   13.4,   11.5,   11.4,   12.5,    6.3,  999.0,  999.0,  999.0,    7.9,    6.9,   10.4,    9.6,   10.1,    7.8,    7.8,    9.1,    9.5,    9.7,    9.2,    9.3,    9.7,   10.0,  999.0,  999.0,  999.0,  999.0,   10.7,   11.7,   12.5,   11.3,   13.5,  999.0,   13.2,   15.9,  999.0,  999.0,  999.0,  999.0,   28.1,  999.0,   30.2,  999.0,   32.1,  999.0,   34.2,  999.0,   36.4,  999.0,   41.5,   39.4,   40.7,   42.2,  999.0
2001/03/04 21:10,  999.0,   12.6,   13.5,   12.0,   13.1,   16.4,   15.1,   13.1,   11.8,   12.3,    9.9,   10.4,    9.5,   10.2,   11.8,   10.6,    9.4,    9.0,    8.2,    8.7,    8.8,    9.3,    9.3,    9.0,   10.4,    9.4,   10.0,   11.4,   11.2,   12.4,   12.0,   10.0,   10.3,    9.4,   11.4,   12.5,   13.6,   14.8,  999.0,  999.0,  999.0,  999.0,  999.0,   29.5,  999.0,   31.2,  999.0,  999.0,  999.0,   36.6,  999.0,  999.0,   40.0,   41.3,  999.0,  999.0,   41.1,   41.2
2001/03/04 21:20,  999.0,   11.6,   12.8,   10.8,   11.8,   11.6,   11.5,   13.0,   11.2,   12.8,   10.9,   11.3,   11.0,    9.6,   12.1,  999.0,    9.7,    9.1,    8.3,    9.2,    9.6,    8.2,    8.5,    8.9,  999.0,    8.8,  999.0,   11.2,  999.0,  999.0,    9.2,   11.3,   10.8,   11.1,   12.0,   13.3,  999.0,  999.0,  999.0,  999.0,  999.0,  999.0,  999.0,   30.0,  999.0,  999.0,   30.1,   31.3,  999.0,  999.0,   37.1,   33.3,  999.0,   39.4,   40.9,   41.7,  999.0,  999.0
2001/03/04 21:30,  999.0,   10.0,   10.7,   11.6,   11.2,   11.2,   11.7,   11.8,   11.3,   12.1,   11.7,   11.6,    9.8,    9.7,   10.2,   11.2,   10.9,    9.8,   10.2,  999.0,    8.2,    7.6,    7.4,    8.2,    9.4,    9.8,    9.8,   11.1,   11.3,  999.0,   10.3,  999.0,  999.0,  999.0,  999.0,  999.0,  999.0,   13.4,  999.0,  999.0,   18.3,  999.0,  999.0,  999.0,  999.0,  999.0,  999.0,   30.5,  999.0,  999.0,  999.0,  999.0,  999.0,  999.0,  999.0,  999.0,   37.5,  999.0
2001/03/04 21:40,  999.0,   10.9,   10.8,   11.2,   11.6,   11.4,   11.2,   11.5,   12.4,   13.4,   11.8,   10.4,    9.3,    9.7,   10.0,   10.7,   10.0,    9.4,    9.4,    8.9,    7.8,    7.4,    8.4,    8.9,   10.3,   10.3,   10.3,  999.0,  999.0,   11.0,   11.9,   12.5,  999.0,  999.0,  999.0,  999.0,  999.0,  999.0,   19.6,  999.0,  999.0,  999.0,  999.0,  999.0,  999.0,  999.0,  999.0,  999.0,  999.0,  999.0,  999.0,   37.4,  999.0,   39.2,  999.0,  999.0,  999.0,  999.0
2001/03/04 21:50,  999.0,   10.8,   11.5,   11.7,   11.4,   11.3,   10.6,   10.9,   10.6,   12.0,   11.7,   12.7,   10.4,    9.5,    9.2,   11.0,    9.4,   10.5,   11.2,    9.7,   10.0,   10.7,    7.8,    7.4,  999.0,  999.0,  999.0,   11.5,   12.2,  999.0,   12.6,   15.4,  999.0,  999.0,  999.0,  999.0,  999.0,  999.0,  999.0,  999.0,  999.0,  999.0,  999.0,   38.9,  999.0,   41.5,  999.0,   42.0,  999.0,  999.0,  999.0,  999.0,   41.9,   42.5,  999.0,  999.0,  999.0,  999.0
2001/03/04 22:00,  999.0,   10.9,   11.0,   11.4,   11.6,   11.5,   11.4,   10.7,   11.7,   10.3,   10.8,   10.9,    9.7,   10.2,    9.8,    9.7,    9.8,   10.6,    9.9,    9.8,    9.2,    7.5,    9.1,    8.5,    9.1,  999.0,    9.8,   11.4,   10.0,   10.0,   10.1,   11.2,   12.1,  999.0,  999.0,   18.9,  999.0,   17.9,   25.9,  999.0,  999.0,   24.0,   28.0,   29.3,   31.3,   32.4,  999.0,  999.0,   34.5,   35.6,   36.7,   38.1,   39.1,   38.7,   40.7,  999.0,   41.1,   41.7
2001/03/04 22:10,  999.0,   10.0,   11.6,   11.2,   11.5,   11.0,   10.8,   12.1,   12.2,   11.5,   10.1,   10.0,   10.3,    9.5,    9.6,    9.6,    9.5,  999.0,  999.0,    9.2,   11.8,    9.7,    7.0,    9.8,    9.8,    9.1,   10.0,   10.5,   10.3,    8.9,   10.6,   12.1,  999.0,  999.0,   23.2,  999.0,  999.0,  999.0,  999.0,   27.6,   27.5,   28.4,  999.0,  999.0,   31.3,  999.0,   33.3,   33.9,   34.8,   35.8,  999.0,  999.0,   37.7,  999.0,   37.4,   38.7,   40.6,  999.0
2001/03/04 22:20,  999.0,   11.8,   12.7,   11.6,   12.6,   12.4,   10.7,   11.3,   12.7,   11.2,   11.2,   11.3,   10.6,   11.1,   11.0,    9.9,    9.7,   10.7,   10.3,   10.6,   10.1,   10.6,   10.3,   10.8,    9.1,    9.8,    9.4,   11.2,   11.0,   10.8,   11.8,  999.0,  999.0,  999.0,   11.4,   17.9,  999.0,   23.3,   24.2,   24.5,  999.0,   27.9,   28.5,  999.0,  999.0,  999.0,   32.2,  999.0,  999.0,   37.0,  999.0,  999.0,   37.5,   39.6,   40.7,  999.0,  999.0,   40.8
2001/03/04 22:30,  999.0,   12.8,   12.5,   12.5,   12.3,   11.9,   12.1,   11.6,   11.7,   11.8,   11.5,   11.8,  999.0,   10.3,   10.0,    9.9,    9.6,    9.7,   10.2,   10.6,  999.0,    9.1,    9.9,   11.1,   10.1,   10.6,   10.7,   10.0,    9.4,   10.2,   10.9,   11.0,    9.7,   10.9,   11.2,   12.5,   14.8,  999.0,  999.0,  999.0,  999.0,   27.9,   28.3,  999.0,  999.0,   30.8,   35.9,   35.4,  999.0,  999.0,   41.0,  999.0,   39.1,   40.0,   41.8,   42.8,   42.0,  999.0
2001/03/04 22:40,  999.0,   12.4,   12.8,   13.0,   13.9,   13.6,   12.3,   12.7,   11.0,    8.5,   11.8,  999.0,  999.0,  999.0,   10.0,    9.5,    9.9,    8.8,    9.9,   10.0,    9.6,    9.9,    9.8,   10.4,   10.2,   10.7,    9.1,    9.9,   11.8,   10.1,   10.9,    9.9,   10.6,   10.3,   10.8,   10.0,   11.9,  999.0,  999.0,  999.0,   26.1,  999.0,   28.5,   28.0,  999.0,  999.0,   34.0,   36.1,  999.0,   38.2,   35.2,  999.0,   41.4,   38.7,  999.0,   42.9,   41.4,   41.5
2001/03/04 22:50,  999.0,   12.0,   12.1,   13.9,   13.4,   11.6,   11.2,   13.7,   13.4,   11.5,   11.6,    9.0,   11.3,   11.4,  999.0,    8.5,    9.8,   10.1,   10.3,   10.3,   11.0,    9.4,    9.2,    9.5,    9.2,    9.8,    9.4,    9.8,   10.0,   10.4,   11.5,   11.8,   11.9,   11.7,   11.3,   11.8,   10.9,   11.3,   11.1,  999.0,  999.0,  999.0,   22.2,  999.0,   29.5,   26.1,  999.0,  999.0,   32.2,  999.0,   37.7,   37.7,  999.0,   34.8,   36.2,   41.7,  999.0,   41.7
2001/03/04 23:00,  999.0,   12.8,   12.2,   13.6,   13.0,   13.3,   14.1,   14.3,   12.3,   12.7,   12.8,   12.4,   11.6,   11.5,  999.0,    9.5,    9.9,   10.5,   10.1,    9.5,   10.4,    9.1,    7.7,    8.5,    9.1,    9.6,    9.8,    9.5,   10.1,   11.6,  999.0,  999.0,    7.8,  999.0,  999.0,   11.5,   10.2,    9.5,   11.1,  999.0,   21.1,  999.0,  999.0,  999.0,  999.0,  999.0,  999.0,  999.0,  999.0,  999.0,  999.0,  999.0,  999.0,   36.0,   37.0,   38.7,   42.0,  999.0
2001/03/04 23:10,  999.0,   11.5,   11.6,   11.9,   12.4,   12.6,   14.5,   13.3,   13.3,   13.2,   13.3,   13.4,   13.3,   11.3,   13.9,  999.0,    9.8,   10.1,   10.1,    9.0,    8.4,    9.8,    9.5,    9.4,    9.4,   10.6,    9.8,    8.7,    9.8,   12.6,  999.0,  999.0,  999.0,   12.4,   12.2,   14.1,   12.1,    9.5,   13.8,   16.0,  999.0,  999.0,  999.0,  999.0,  999.0,  999.0,  999.0,   33.9,  999.0,  999.0,  999.0,   37.4,   37.7,   40.3,   40.6,  999.0,   42.3,   42.5
2001/03/04 23:20,  999.0,   11.5,   12.0,   13.3,   13.2,   13.5,   13.0,   11.9,   12.7,   13.1,   13.4,   13.6,   13.7,   12.6,   13.7,  999.0,   10.1,   11.0,   10.8,    9.6,   10.0,    9.6,    9.4,    9.9,   10.8,    8.9,    8.9,    9.4,    9.9,   10.6,   11.0,   11.1,   12.2,  999.0,  999.0,  999.0,   13.2,   14.8,   12.0,   27.6,  999.0,   29.3,  999.0,  999.0,  999.0,   31.8,   33.0,  999.0,  999.0,  999.0,   36.6,   36.2,  999.0,   42.7,  999.0,   38.8,  999.0,   40.0
2001/03/04 23:30,  999.0,   11.8,   12.8,   13.2,   13.4,   12.7,   14.1,   13.2,   13.6,   13.0,   12.9,   13.2,   13.4,   12.4,   10.9,   12.9,    8.1,   10.3,   10.4,   10.0,    9.9,   10.1,   11.2,   10.0,    9.5,    8.1,    8.7,    9.6,   10.7,  999.0,  999.0,  999.0,   15.3,  999.0,  999.0,   27.0,  999.0,  999.0,  999.0,   30.8,  999.0,   31.8,  999.0,   34.5,  999.0,  999.0,   37.4,  999.0,   39.3,   40.5,  999.0,   41.3,  999.0,  999.0,  999.0,   41.9,   41.9,  999.0
2001/03/04 23:40,  999.0,    9.5,   11.2,   11.9,   12.4,   12.4,   12.5,   13.0,   13.4,   12.9,   13.1,   12.5,   13.0,   13.7,   10.6,  999.0,  999.0,    9.3,    9.5,   10.9,   10.5,   10.9,   11.9,  999.0,  999.0,  999.0,    9.7,    9.7,    9.7,  999.0,  999.0,  999.0,  999.0,  999.0,  999.0,  999.0,  999.0,  999.0,  999.0,  999.0,  999.0,  999.0,  999.0,  999.0,  999.0,  999.0,  999.0,  999.0,  999.0,  999.0,  999.0,  999.0,  999.0,  999.0,  999.0,  999.0,  999.0,  999.0
2001/03/04 23:50,  999.0,    9.8,   11.1,   11.9,   12.1,   12.2,   13.1,   10.2,   12.5,   12.0,   11.7,   11.8,   10.7,   10.4,    8.9,    9.3,   10.2,    8.3,    9.2,    8.8,   10.9,    9.3,   10.2,    8.6,  999.0,    9.2,   10.1,   11.0,  999.0,  999.0,  999.0,  999.0,  999.0,  999.0,  999.0,  999.0,  999.0,  999.0,  999.0,  999.0,  999.0,  999.0,  999.0,  999.0,  999.0,  999.0,  999.0,  999.0,  999.0,  999.0,  999.0,  999.0,  999.0,  999.0,  999.0,  999.0,  999.0,  999.0
